Observation data for Caprock Canyons on 11/16/2019      Previous  Date       Current Mesonet Observations  Soil Data  Daily Summary Page  Observations in Plain Language
KQU1 160600Z 18010KT 06/M02 A3017 RMK A01 T00631016  RH  057%=      5-min Rain = 0
KQU1 160601Z 18010KT 06/M02 A3017 RMK A01 T00631016  RH  057%=      5-min Rain = 0
KQU1 160602Z 18009KT 06/M02 A3017 RMK A01 T00631016  RH  057%=      5-min Rain = 0
KQU1 160603Z 19009KT 06/M02 A3017 RMK A01 T00621017  RH  057%=      5-min Rain = 0
KQU1 160604Z 18009KT 06/M02 A3017 RMK A01 T00621017  RH  057%=      5-min Rain = 0
KQU1 160605Z 19009KT 06/M02 A3017 RMK A01 T00611017  RH  057%=      5-min Rain = 0
KQU1 160606Z 19009KT 06/M02 A3017 RMK A01 T00611017  RH  057%=      5-min Rain = 0
KQU1 160607Z 19010KT 06/M02 A3017 RMK A01 T00611017  RH  057%=      5-min Rain = 0
KQU1 160608Z 19010KT 06/M02 A3017 RMK A01 T00611017  RH  058%=      5-min Rain = 0
KQU1 160609Z 19010KT 06/M02 A3017 RMK A01 T00611017  RH  058%=      5-min Rain = 0
KQU1 160610Z 19009KT 06/M02 A3017 RMK A01 T00601017  RH  058%=      5-min Rain = 0
KQU1 160611Z 19009KT 06/M02 A3017 RMK A01 T00601017  RH  058%=      5-min Rain = 0
KQU1 160612Z 19009KT 06/M02 A3017 RMK A01 T00591017  RH  058%=      5-min Rain = 0
KQU1 160613Z 19009KT 06/M02 A3017 RMK A01 T00591017  RH  058%=      5-min Rain = 0
KQU1 160614Z 19009KT 06/M02 A3017 RMK A01 T00591017  RH  058%=      5-min Rain = 0
KQU1 160615Z 19009KT 06/M02 A3017 RMK A01 T00581017  RH  058%=      5-min Rain = 0
KQU1 160616Z 19009KT 06/M02 A3017 RMK A01 T00571018  RH  059%=      5-min Rain = 0
KQU1 160617Z 19008KT 06/M02 A3017 RMK A01 T00561018  RH  059%=      5-min Rain = 0
KQU1 160618Z 19009KT 06/M02 A3017 RMK A01 T00551019  RH  059%=      5-min Rain = 0
KQU1 160619Z 19009KT 05/M02 A3017 RMK A01 T00541019  RH  059%=      5-min Rain = 0
KQU1 160620Z 19009KT 05/M02 A3017 RMK A01 T00521019  RH  060%=      5-min Rain = 0
KQU1 160621Z 19009KT 05/M02 A3017 RMK A01 T00521020  RH  060%=      5-min Rain = 0
KQU1 160622Z 19008KT 05/M02 A3017 RMK A01 T00511020  RH  060%=      5-min Rain = 0
KQU1 160623Z 19008KT 05/M02 A3017 RMK A01 T00501020  RH  061%=      5-min Rain = 0
KQU1 160624Z 19008KT 05/M02 A3017 RMK A01 T00491020  RH  061%=      5-min Rain = 0
KQU1 160625Z 19009KT 05/M02 A3017 RMK A01 T00481020  RH  061%=      5-min Rain = 0
KQU1 160626Z 19009KT 05/M02 A3017 RMK A01 T00481019  RH  062%=      5-min Rain = 0
KQU1 160627Z 19009KT 05/M02 A3017 RMK A01 T00481019  RH  062%=      5-min Rain = 0
KQU1 160628Z 19009KT 05/M02 A3017 RMK A01 T00491019  RH  062%=      5-min Rain = 0
KQU1 160629Z 19009KT 05/M02 A3017 RMK A01 T00491019  RH  062%=      5-min Rain = 0
KQU1 160630Z 19008KT 05/M02 A3016 RMK A01 T00491019  RH  062%=      5-min Rain = 0
KQU1 160631Z 19008KT 05/M02 A3016 RMK A01 T00491019  RH  062%=      5-min Rain = 0
KQU1 160632Z 19009KT 05/M02 A3016 RMK A01 T00481019  RH  062%=      5-min Rain = 0
KQU1 160633Z 19008KT 05/M02 A3016 RMK A01 T00481019  RH  062%=      5-min Rain = 0
KQU1 160634Z 19009KT 05/M02 A3016 RMK A01 T00471019  RH  062%=      5-min Rain = 0
KQU1 160635Z 19009KT 05/M02 A3016 RMK A01 T00471019  RH  062%=      5-min Rain = 0
KQU1 160636Z 19009KT 05/M02 A3016 RMK A01 T00471019  RH  062%=      5-min Rain = 0
KQU1 160637Z 19009KT 05/M02 A3016 RMK A01 T00471018  RH  063%=      5-min Rain = 0
KQU1 160638Z 19009KT 05/M02 A3016 RMK A01 T00471018  RH  063%=      5-min Rain = 0
KQU1 160639Z 19008KT 05/M02 A3016 RMK A01 T00471018  RH  063%=      5-min Rain = 0
KQU1 160640Z 19009KT 05/M02 A3016 RMK A01 T00471018  RH  063%=      5-min Rain = 0
KQU1 160641Z 18009KT 05/M02 A3016 RMK A01 T00471018  RH  063%=      5-min Rain = 0
KQU1 160642Z 18009KT 05/M02 A3016 RMK A01 T00471018  RH  063%=      5-min Rain = 0
KQU1 160643Z 18010KT 05/M02 A3016 RMK A01 T00481017  RH  063%=      5-min Rain = 0
KQU1 160644Z 18010KT 05/M02 A3016 RMK A01 T00491016  RH  063%=      5-min Rain = 0
KQU1 160645Z 18010KT 05/M02 A3016 RMK A01 T00511016  RH  062%=      5-min Rain = 0
KQU1 160646Z 18010KT 05/M02 A3016 RMK A01 T00531016  RH  061%=      5-min Rain = 0
KQU1 160647Z 18009KT 05/M02 A3016 RMK A01 T00541016  RH  061%=      5-min Rain = 0
KQU1 160648Z 18009KT 06/M02 A3016 RMK A01 T00551016  RH  060%=      5-min Rain = 0
KQU1 160649Z 18009KT 06/M02 A3016 RMK A01 T00551016  RH  060%=      5-min Rain = 0
KQU1 160650Z 18010KT 06/M02 A3016 RMK A01 T00561016  RH  060%=      5-min Rain = 0
KQU1 160651Z 18009KT 06/M02 A3016 RMK A01 T00561017  RH  060%=      5-min Rain = 0
KQU1 160652Z 18010KT 06/M02 A3016 RMK A01 T00561017  RH  060%=      5-min Rain = 0
KQU1 160653Z 18009KT 06/M02 A3016 RMK A01 T00561017  RH  060%=      5-min Rain = 0
KQU1 160654Z 18009KT 06/M02 A3016 RMK A01 T00561017  RH  060%=      5-min Rain = 0
KQU1 160655Z 18009KT 06/M02 A3016 RMK A01 T00561017  RH  059%=      5-min Rain = 0
KQU1 160656Z 18009KT 06/M02 A3016 RMK A01 T00561017  RH  059%=      5-min Rain = 0
KQU1 160657Z 18009KT 06/M02 A3016 RMK A01 T00561017  RH  059%=      5-min Rain = 0
KQU1 160658Z 18009KT 06/M02 A3016 RMK A01 T00551017  RH  060%=      5-min Rain = 0
KQU1 160659Z 18008KT 06/M02 A3016 RMK A01 T00551018  RH  060%=      5-min Rain = 0
KQU1 160700Z 18009KT 05/M02 A3016 RMK A01 T00541018  RH  060%=      5-min Rain = 0
KQU1 160701Z 18009KT 05/M02 A3016 RMK A01 T00541018  RH  060%=      5-min Rain = 0
KQU1 160702Z 18009KT 05/M02 A3016 RMK A01 T00541017  RH  060%=      5-min Rain = 0
KQU1 160703Z 18009KT 05/M02 A3015 RMK A01 T00541018  RH  060%=      5-min Rain = 0
KQU1 160704Z 18008KT 05/M02 A3015 RMK A01 T00531018  RH  060%=      5-min Rain = 0
KQU1 160705Z 18008KT 05/M02 A3015 RMK A01 T00531018  RH  060%=      5-min Rain = 0
KQU1 160706Z 19008KT 05/M02 A3015 RMK A01 T00531018  RH  060%=      5-min Rain = 0
KQU1 160707Z 19009KT 05/M02 A3015 RMK A01 T00521018  RH  061%=      5-min Rain = 0
KQU1 160708Z 19008KT 05/M02 A3015 RMK A01 T00521018  RH  061%=      5-min Rain = 0
KQU1 160709Z 19008KT 05/M02 A3015 RMK A01 T00511018  RH  061%=      5-min Rain = 0
KQU1 160710Z 19007KT 05/M02 A3015 RMK A01 T00511018  RH  061%=      5-min Rain = 0
KQU1 160711Z 19008KT 05/M02 A3015 RMK A01 T00501019  RH  061%=      5-min Rain = 0
KQU1 160712Z 19008KT 05/M02 A3015 RMK A01 T00491019  RH  062%=      5-min Rain = 0
KQU1 160713Z 19008KT 05/M02 A3015 RMK A01 T00481019  RH  062%=      5-min Rain = 0
KQU1 160714Z 19008KT 05/M02 A3015 RMK A01 T00471019  RH  062%=      5-min Rain = 0
KQU1 160715Z 19007KT 05/M02 A3015 RMK A01 T00471019  RH  063%=      5-min Rain = 0
KQU1 160716Z 19008KT 05/M02 A3015 RMK A01 T00461019  RH  063%=      5-min Rain = 0
KQU1 160717Z 19008KT 05/M02 A3015 RMK A01 T00461019  RH  063%=      5-min Rain = 0
KQU1 160718Z 19008KT 05/M02 A3015 RMK A01 T00461018  RH  063%=      5-min Rain = 0
KQU1 160719Z 18009KT 05/M02 A3015 RMK A01 T00461018  RH  063%=      5-min Rain = 0
KQU1 160720Z 18008KT 05/M02 A3015 RMK A01 T00461018  RH  063%=      5-min Rain = 0
KQU1 160721Z 18008KT 05/M02 A3015 RMK A01 T00461018  RH  063%=      5-min Rain = 0
KQU1 160722Z 18009KT 05/M02 A3015 RMK A01 T00461018  RH  063%=      5-min Rain = 0
KQU1 160723Z 18008KT 05/M02 A3015 RMK A01 T00461018  RH  063%=      5-min Rain = 0
KQU1 160724Z 18009KT 05/M02 A3015 RMK A01 T00461018  RH  063%=      5-min Rain = 0
KQU1 160725Z 18009KT 05/M02 A3015 RMK A01 T00471017  RH  063%=      5-min Rain = 0
KQU1 160726Z 18009KT 05/M02 A3015 RMK A01 T00471018  RH  063%=      5-min Rain = 0
KQU1 160727Z 19009KT 05/M02 A3015 RMK A01 T00471018  RH  063%=      5-min Rain = 0
KQU1 160728Z 18010KT 05/M02 A3015 RMK A01 T00471018  RH  063%=      5-min Rain = 0
KQU1 160729Z 19009KT 05/M02 A3015 RMK A01 T00481017  RH  063%=      5-min Rain = 0
KQU1 160730Z 18009KT 05/M02 A3015 RMK A01 T00481018  RH  062%=      5-min Rain = 0
KQU1 160731Z 18009KT 05/M02 A3015 RMK A01 T00481018  RH  062%=      5-min Rain = 0
KQU1 160732Z 19009KT 05/M02 A3015 RMK A01 T00481018  RH  062%=      5-min Rain = 0
KQU1 160733Z 19009KT 05/M02 A3015 RMK A01 T00481018  RH  062%=      5-min Rain = 0
KQU1 160734Z 19009KT 05/M02 A3014 RMK A01 T00471018  RH  062%=      5-min Rain = 0
KQU1 160735Z 19009KT 05/M02 A3014 RMK A01 T00471018  RH  063%=      5-min Rain = 0
KQU1 160736Z 19009KT 05/M02 A3014 RMK A01 T00461019  RH  063%=      5-min Rain = 0
KQU1 160737Z 19010KT 05/M02 A3014 RMK A01 T00451019  RH  063%=      5-min Rain = 0
KQU1 160738Z 18011KT 05/M02 A3014 RMK A01 T00451019  RH  063%=      5-min Rain = 0
KQU1 160739Z 18011KT 04/M02 A3014 RMK A01 T00441018  RH  064%=      5-min Rain = 0
KQU1 160740Z 19010KT 05/M02 A3014 RMK A01 T00451018  RH  064%=      5-min Rain = 0
KQU1 160741Z 19010KT 05/M02 A3014 RMK A01 T00451018  RH  064%=      5-min Rain = 0
KQU1 160742Z 19010KT 05/M02 A3014 RMK A01 T00451018  RH  063%=      5-min Rain = 0
KQU1 160743Z 19010KT 05/M02 A3014 RMK A01 T00451018  RH  063%=      5-min Rain = 0
KQU1 160744Z 19010KT 05/M02 A3014 RMK A01 T00461018  RH  063%=      5-min Rain = 0
KQU1 160745Z 19011KT 05/M02 A3014 RMK A01 T00461018  RH  063%=      5-min Rain = 0
KQU1 160746Z 19010KT 05/M02 A3014 RMK A01 T00461018  RH  063%=      5-min Rain = 0
KQU1 160747Z 19010KT 05/M02 A3014 RMK A01 T00461018  RH  063%=      5-min Rain = 0
KQU1 160748Z 19010KT 05/M02 A3014 RMK A01 T00461018  RH  063%=      5-min Rain = 0
KQU1 160749Z 18010KT 05/M02 A3014 RMK A01 T00461019  RH  063%=      5-min Rain = 0
KQU1 160750Z 18010KT 05/M02 A3014 RMK A01 T00451019  RH  063%=      5-min Rain = 0
KQU1 160751Z 18010KT 05/M02 A3014 RMK A01 T00451019  RH  063%=      5-min Rain = 0
KQU1 160752Z 18008KT 05/M02 A3014 RMK A01 T00451019  RH  063%=      5-min Rain = 0
KQU1 160753Z 18008KT 04/M02 A3014 RMK A01 T00441019  RH  064%=      5-min Rain = 0
KQU1 160754Z 18008KT 04/M02 A3014 RMK A01 T00441019  RH  064%=      5-min Rain = 0
KQU1 160755Z 18009KT 04/M02 A3014 RMK A01 T00441019  RH  064%=      5-min Rain = 0
KQU1 160756Z 18009KT 04/M02 A3014 RMK A01 T00431019  RH  064%=      5-min Rain = 0
KQU1 160757Z 18009KT 04/M02 A3014 RMK A01 T00421019  RH  064%=      5-min Rain = 0
KQU1 160758Z 18009KT 04/M02 A3014 RMK A01 T00421019  RH  065%=      5-min Rain = 0
KQU1 160759Z 17009KT 04/M02 A3014 RMK A01 T00421019  RH  065%=      5-min Rain = 0
KQU1 160800Z 18010KT 04/M02 A3014 RMK A01 T00421018  RH  065%=      5-min Rain = 0
KQU1 160801Z 18010KT 04/M02 A3014 RMK A01 T00421018  RH  065%=      5-min Rain = 0
KQU1 160802Z 18010KT 04/M02 A3014 RMK A01 T00431018  RH  065%=      5-min Rain = 0
KQU1 160803Z 18010KT 04/M02 A3014 RMK A01 T00431018  RH  064%=      5-min Rain = 0
KQU1 160804Z 18010KT 04/M02 A3014 RMK A01 T00441018  RH  064%=      5-min Rain = 0
KQU1 160805Z 18010KT 04/M02 A3014 RMK A01 T00441018  RH  064%=      5-min Rain = 0
KQU1 160806Z 18009KT 04/M02 A3014 RMK A01 T00441018  RH  064%=      5-min Rain = 0
KQU1 160807Z 18009KT 04/M02 A3014 RMK A01 T00441018  RH  064%=      5-min Rain = 0
KQU1 160808Z 18009KT 04/M02 A3014 RMK A01 T00441018  RH  064%=      5-min Rain = 0
KQU1 160809Z 19009KT 04/M02 A3014 RMK A01 T00441018  RH  064%=      5-min Rain = 0
KQU1 160810Z 18008KT 05/M02 A3014 RMK A01 T00451017  RH  064%=      5-min Rain = 0
KQU1 160811Z 18008KT 05/M02 A3014 RMK A01 T00451018  RH  064%=      5-min Rain = 0
KQU1 160812Z 19008KT 05/M02 A3014 RMK A01 T00451017  RH  064%=      5-min Rain = 0
KQU1 160813Z 19008KT 05/M02 A3014 RMK A01 T00451017  RH  064%=      5-min Rain = 0
KQU1 160814Z 19008KT 05/M02 A3014 RMK A01 T00461017  RH  064%=      5-min Rain = 0
KQU1 160815Z 19008KT 05/M02 A3014 RMK A01 T00461017  RH  064%=      5-min Rain = 0
KQU1 160816Z 19008KT 05/M02 A3014 RMK A01 T00471017  RH  063%=      5-min Rain = 0
KQU1 160817Z 19008KT 05/M02 A3014 RMK A01 T00471017  RH  063%=      5-min Rain = 0
KQU1 160818Z 19008KT 05/M02 A3014 RMK A01 T00471016  RH  063%=      5-min Rain = 0
KQU1 160819Z 19009KT 05/M02 A3014 RMK A01 T00481016  RH  063%=      5-min Rain = 0
KQU1 160820Z 19008KT 05/M02 A3014 RMK A01 T00481016  RH  063%=      5-min Rain = 0
KQU1 160821Z 19008KT 05/M02 A3014 RMK A01 T00491015  RH  063%=      5-min Rain = 0
KQU1 160822Z 19009KT 05/M02 A3014 RMK A01 T00501015  RH  063%=      5-min Rain = 0
KQU1 160823Z 19010KT 05/M02 A3014 RMK A01 T00511015  RH  063%=      5-min Rain = 0
KQU1 160824Z 19010KT 05/M01 A3014 RMK A01 T00531014  RH  062%=      5-min Rain = 0
KQU1 160825Z 19010KT 06/M01 A3014 RMK A01 T00551014  RH  061%=      5-min Rain = 0
KQU1 160826Z 20010KT 06/M01 A3014 RMK A01 T00561014  RH  060%=      5-min Rain = 0
KQU1 160827Z 20011KT 06/M01 A3014 RMK A01 T00591014  RH  060%=      5-min Rain = 0
KQU1 160828Z 19010KT 06/M01 A3014 RMK A01 T00601014  RH  059%=      5-min Rain = 0
KQU1 160829Z 20011KT 06/M02 A3014 RMK A01 T00611015  RH  058%=      5-min Rain = 0
KQU1 160830Z 19011KT 06/M02 A3014 RMK A01 T00621015  RH  058%=      5-min Rain = 0
KQU1 160831Z 19011KT 06/M02 A3014 RMK A01 T00621015  RH  058%=      5-min Rain = 0
KQU1 160832Z 19011KT 06/M02 A3014 RMK A01 T00611015  RH  058%=      5-min Rain = 0
KQU1 160833Z 19011KT 06/M02 A3014 RMK A01 T00611015  RH  058%=      5-min Rain = 0
KQU1 160834Z 19011KT 06/M02 A3014 RMK A01 T00611015  RH  058%=      5-min Rain = 0
KQU1 160835Z 19011KT 06/M02 A3014 RMK A01 T00611015  RH  058%=      5-min Rain = 0
KQU1 160836Z 19011KT 06/M02 A3014 RMK A01 T00601015  RH  058%=      5-min Rain = 0
KQU1 160837Z 19011KT 06/M02 A3014 RMK A01 T00601015  RH  058%=      5-min Rain = 0
KQU1 160838Z 19011KT 06/M02 A3014 RMK A01 T00601015  RH  058%=      5-min Rain = 0
KQU1 160839Z 19012KT 06/M02 A3013 RMK A01 T00601015  RH  059%=      5-min Rain = 0
KQU1 160840Z 19011KT 06/M02 A3013 RMK A01 T00601015  RH  059%=      5-min Rain = 0
KQU1 160841Z 19012KT 06/M02 A3013 RMK A01 T00601015  RH  059%=      5-min Rain = 0
KQU1 160842Z 19011KT 06/M02 A3013 RMK A01 T00601015  RH  058%=      5-min Rain = 0
KQU1 160843Z 19011KT 06/M02 A3013 RMK A01 T00601015  RH  058%=      5-min Rain = 0
KQU1 160844Z 19012KT 06/M02 A3013 RMK A01 T00601015  RH  058%=      5-min Rain = 0
KQU1 160845Z 19012KT 06/M02 A3013 RMK A01 T00601015  RH  058%=      5-min Rain = 0
KQU1 160846Z 19012KT 06/M02 A3013 RMK A01 T00601015  RH  058%=      5-min Rain = 0
KQU1 160847Z 19011KT 06/M02 A3013 RMK A01 T00601015  RH  059%=      5-min Rain = 0
KQU1 160848Z 19011KT 06/M02 A3013 RMK A01 T00601015  RH  059%=      5-min Rain = 0
KQU1 160849Z 19011KT 06/M02 A3013 RMK A01 T00601015  RH  059%=      5-min Rain = 0
KQU1 160850Z 19012KT 06/M02 A3013 RMK A01 T00601015  RH  059%=      5-min Rain = 0
KQU1 160851Z 19013KT 06/M02 A3013 RMK A01 T00601015  RH  059%=      5-min Rain = 0
KQU1 160852Z 19012KT 06/M01 A3013 RMK A01 T00601014  RH  059%=      5-min Rain = 0
KQU1 160853Z 19012KT 06/M01 A3013 RMK A01 T00611014  RH  059%=      5-min Rain = 0
KQU1 160854Z 19012KT 06/M01 A3013 RMK A01 T00621014  RH  058%=      5-min Rain = 0
KQU1 160855Z 19012KT 06/M01 A3013 RMK A01 T00621014  RH  058%=      5-min Rain = 0
KQU1 160856Z 19012KT 06/M01 A3013 RMK A01 T00621014  RH  058%=      5-min Rain = 0
KQU1 160857Z 19012KT 06/M01 A3013 RMK A01 T00621014  RH  058%=      5-min Rain = 0
KQU1 160858Z 19012KT 06/M01 A3013 RMK A01 T00631014  RH  058%=      5-min Rain = 0
KQU1 160859Z 19012KT 06/M01 A3013 RMK A01 T00631014  RH  058%=      5-min Rain = 0
KQU1 160900Z 19012KT 06/M01 A3013 RMK A01 T00641014  RH  057%=      5-min Rain = 0
KQU1 160901Z 19013KT 07/M01 A3013 RMK A01 T00651014  RH  057%=      5-min Rain = 0
KQU1 160902Z 20013KT 07/M01 A3013 RMK A01 T00661013  RH  057%=      5-min Rain = 0
KQU1 160903Z 19013KT 07/M01 A3013 RMK A01 T00661013  RH  057%=      5-min Rain = 0
KQU1 160904Z 20013KT 07/M01 A3013 RMK A01 T00671013  RH  057%=      5-min Rain = 0
KQU1 160905Z 20013KT 07/M01 A3013 RMK A01 T00671013  RH  056%=      5-min Rain = 0
KQU1 160906Z 20013KT 07/M01 A3013 RMK A01 T00681013  RH  057%=      5-min Rain = 0
KQU1 160907Z 20014KT 07/M01 A3013 RMK A01 T00691012  RH  056%=      5-min Rain = 0
KQU1 160908Z 20014KT 07/M01 A3013 RMK A01 T00701012  RH  056%=      5-min Rain = 0
KQU1 160909Z 20014KT 07/M01 A3013 RMK A01 T00711012  RH  056%=      5-min Rain = 0
KQU1 160910Z 20013KT 07/M01 A3013 RMK A01 T00721011  RH  055%=      5-min Rain = 0
KQU1 160911Z 20014KT 07/M01 A3013 RMK A01 T00731012  RH  055%=      5-min Rain = 0
KQU1 160912Z 20015KT 07/M01 A3013 RMK A01 T00741011  RH  055%=      5-min Rain = 0
KQU1 160913Z 20014KT 08/M01 A3013 RMK A01 T00751011  RH  054%=      5-min Rain = 0
KQU1 160914Z 20016KT 08/M01 A3013 RMK A01 T00761011  RH  054%=      5-min Rain = 0
KQU1 160915Z 20015KT 08/M01 A3013 RMK A01 T00781011  RH  054%=      5-min Rain = 0
KQU1 160916Z 20016KT 08/M01 A3013 RMK A01 T00791011  RH  053%=      5-min Rain = 0
KQU1 160917Z 20015KT 08/M01 A3013 RMK A01 T00811011  RH  053%=      5-min Rain = 0
KQU1 160918Z 20017KT 08/M01 A3013 RMK A01 T00821010  RH  052%=      5-min Rain = 0
KQU1 160919Z 20014KT 08/M01 A3013 RMK A01 T00841011  RH  051%=      5-min Rain = 0
KQU1 160920Z 20016KT 08/M01 A3013 RMK A01 T00831011  RH  051%=      5-min Rain = 0
KQU1 160921Z 20017KT 08/M01 A3013 RMK A01 T00841011  RH  051%=      5-min Rain = 0
KQU1 160922Z 21016KT 09/M01 A3013 RMK A01 T00851011  RH  051%=      5-min Rain = 0
KQU1 160923Z 20015KT 09/M01 A3013 RMK A01 T00851011  RH  051%=      5-min Rain = 0
KQU1 160924Z 20013KT 08/M01 A3013 RMK A01 T00841011  RH  051%=      5-min Rain = 0
KQU1 160925Z 20014KT 08/M01 A3013 RMK A01 T00841011  RH  051%=      5-min Rain = 0
KQU1 160926Z 20015KT 08/M01 A3013 RMK A01 T00841011  RH  051%=      5-min Rain = 0
KQU1 160927Z 20015KT 08/M01 A3012 RMK A01 T00841011  RH  051%=      5-min Rain = 0
KQU1 160928Z 20015KT 09/M01 A3012 RMK A01 T00851011  RH  051%=      5-min Rain = 0
KQU1 160929Z 20014KT 09/M01 A3012 RMK A01 T00851012  RH  051%=      5-min Rain = 0
KQU1 160930Z 20014KT 09/M01 A3013 RMK A01 T00851012  RH  051%=      5-min Rain = 0
KQU1 160931Z 20015KT 08/M01 A3012 RMK A01 T00841012  RH  051%=      5-min Rain = 0
KQU1 160932Z 20014KT 08/M01 A3012 RMK A01 T00841012  RH  051%=      5-min Rain = 0
KQU1 160933Z 20016KT 08/M01 A3012 RMK A01 T00841012  RH  051%=      5-min Rain = 0
KQU1 160934Z 20014KT 09/M01 A3012 RMK A01 T00851012  RH  051%=      5-min Rain = 0
KQU1 160935Z 20014KT 08/M01 A3012 RMK A01 T00841012  RH  051%=      5-min Rain = 0
KQU1 160936Z 20014KT 08/M01 A3012 RMK A01 T00841012  RH  051%=      5-min Rain = 0
KQU1 160937Z 20015KT 08/M01 A3012 RMK A01 T00841012  RH  051%=      5-min Rain = 0
KQU1 160938Z 20015KT 08/M01 A3012 RMK A01 T00841012  RH  051%=      5-min Rain = 0
KQU1 160939Z 20014KT 08/M01 A3012 RMK A01 T00841012  RH  051%=      5-min Rain = 0
KQU1 160940Z 20013KT 08/M01 A3012 RMK A01 T00841012  RH  051%=      5-min Rain = 0
KQU1 160941Z 20014KT 08/M01 A3012 RMK A01 T00841012  RH  051%=      5-min Rain = 0
KQU1 160942Z 20013KT 08/M01 A3012 RMK A01 T00841012  RH  051%=      5-min Rain = 0
KQU1 160943Z 20013KT 08/M01 A3012 RMK A01 T00841012  RH  051%=      5-min Rain = 0
KQU1 160944Z 20012KT 08/M01 A3012 RMK A01 T00841012  RH  051%=      5-min Rain = 0
KQU1 160945Z 20014KT 08/M01 A3012 RMK A01 T00831012  RH  051%=      5-min Rain = 0
KQU1 160946Z 20013KT 08/M01 A3012 RMK A01 T00831012  RH  051%=      5-min Rain = 0
KQU1 160947Z 20013KT 08/M01 A3012 RMK A01 T00831012  RH  051%=      5-min Rain = 0
KQU1 160948Z 20013KT 08/M01 A3012 RMK A01 T00831012  RH  051%=      5-min Rain = 0
KQU1 160949Z 20013KT 08/M01 A3012 RMK A01 T00831012  RH  051%=      5-min Rain = 0
KQU1 160950Z 20012KT 08/M01 A3012 RMK A01 T00821012  RH  051%=      5-min Rain = 0
KQU1 160951Z 20013KT 08/M01 A3012 RMK A01 T00821011  RH  052%=      5-min Rain = 0
KQU1 160952Z 20012KT 08/M01 A3012 RMK A01 T00831011  RH  051%=      5-min Rain = 0
KQU1 160953Z 20012KT 08/M01 A3012 RMK A01 T00821011  RH  052%=      5-min Rain = 0
KQU1 160954Z 20012KT 08/M01 A3012 RMK A01 T00821011  RH  052%=      5-min Rain = 0
KQU1 160955Z 20012KT 08/M01 A3012 RMK A01 T00821011  RH  052%=      5-min Rain = 0
KQU1 160956Z 20011KT 08/M01 A3012 RMK A01 T00811011  RH  052%=      5-min Rain = 0
KQU1 160957Z 19012KT 08/M01 A3012 RMK A01 T00811011  RH  052%=      5-min Rain = 0
KQU1 160958Z 19012KT 08/M01 A3012 RMK A01 T00811011  RH  052%=      5-min Rain = 0
KQU1 160959Z 20011KT 08/M01 A3012 RMK A01 T00811011  RH  052%=      5-min Rain = 0
KQU1 161000Z 19013KT 08/M01 A3012 RMK A01 T00811011  RH  052%=      5-min Rain = 0
KQU1 161001Z 20012G17KT 08/M01 A3012 RMK A01 T00821010  RH  052%=      5-min Rain = 0
KQU1 161002Z 20012KT 08/M01 A3012 RMK A01 T00821010  RH  052%=      5-min Rain = 0
KQU1 161003Z 20014KT 08/M01 A3012 RMK A01 T00831010  RH  052%=      5-min Rain = 0
KQU1 161004Z 20013KT 09/M01 A3012 RMK A01 T00851010  RH  051%=      5-min Rain = 0
KQU1 161005Z 20013KT 09/M01 A3012 RMK A01 T00851010  RH  051%=      5-min Rain = 0
KQU1 161006Z 19011KT 09/M01 A3012 RMK A01 T00851010  RH  051%=      5-min Rain = 0
KQU1 161007Z 20012KT 09/M01 A3012 RMK A01 T00851010  RH  051%=      5-min Rain = 0
KQU1 161008Z 20012KT 08/M01 A3012 RMK A01 T00841010  RH  051%=      5-min Rain = 0
KQU1 161009Z 20013KT 08/M01 A3012 RMK A01 T00841010  RH  052%=      5-min Rain = 0
KQU1 161010Z 20012KT 09/M01 A3012 RMK A01 T00851010  RH  051%=      5-min Rain = 0
KQU1 161011Z 19013KT 09/M01 A3012 RMK A01 T00851010  RH  051%=      5-min Rain = 0
KQU1 161012Z 20012KT 09/M01 A3012 RMK A01 T00851010  RH  051%=      5-min Rain = 0
KQU1 161013Z 19013KT 09/M01 A3012 RMK A01 T00851010  RH  051%=      5-min Rain = 0
KQU1 161014Z 19012KT 09/M01 A3012 RMK A01 T00851010  RH  051%=      5-min Rain = 0
KQU1 161015Z 20013KT 09/M01 A3012 RMK A01 T00851010  RH  051%=      5-min Rain = 0
KQU1 161016Z 19013KT 08/M01 A3012 RMK A01 T00841010  RH  052%=      5-min Rain = 0
KQU1 161017Z 20012KT 08/M01 A3011 RMK A01 T00841010  RH  052%=      5-min Rain = 0
KQU1 161018Z 20013KT 08/M01 A3011 RMK A01 T00841010  RH  052%=      5-min Rain = 0
KQU1 161019Z 19012KT 08/M01 A3011 RMK A01 T00841010  RH  052%=      5-min Rain = 0
KQU1 161020Z 20012G17KT 08/M01 A3011 RMK A01 T00831010  RH  052%=      5-min Rain = 0
KQU1 161021Z 19013KT 08/M01 A3011 RMK A01 T00831010  RH  052%=      5-min Rain = 0
KQU1 161022Z 19012KT 08/M01 A3011 RMK A01 T00831009  RH  052%=      5-min Rain = 0
KQU1 161023Z 20011KT 08/M01 A3011 RMK A01 T00831010  RH  052%=      5-min Rain = 0
KQU1 161024Z 20012KT 08/M01 A3011 RMK A01 T00821010  RH  052%=      5-min Rain = 0
KQU1 161025Z 20011KT 08/M01 A3011 RMK A01 T00821009  RH  053%=      5-min Rain = 0
KQU1 161026Z 19011KT 08/M01 A3012 RMK A01 T00821009  RH  053%=      5-min Rain = 0
KQU1 161027Z 19011KT 08/M01 A3012 RMK A01 T00821009  RH  053%=      5-min Rain = 0
KQU1 161028Z 20011KT 08/M01 A3012 RMK A01 T00811009  RH  053%=      5-min Rain = 0
KQU1 161029Z 20012KT 08/M01 A3012 RMK A01 T00821009  RH  053%=      5-min Rain = 0
KQU1 161030Z 20011KT 08/M01 A3012 RMK A01 T00821009  RH  052%=      5-min Rain = 0
KQU1 161031Z 19013KT 08/M01 A3012 RMK A01 T00821009  RH  052%=      5-min Rain = 0
KQU1 161032Z 19014KT 08/M01 A3012 RMK A01 T00821009  RH  052%=      5-min Rain = 0
KQU1 161033Z 19011KT 08/M01 A3012 RMK A01 T00821010  RH  052%=      5-min Rain = 0
KQU1 161034Z 19012KT 08/M01 A3012 RMK A01 T00821010  RH  052%=      5-min Rain = 0
KQU1 161035Z 19012KT 08/M01 A3012 RMK A01 T00831010  RH  052%=      5-min Rain = 0
KQU1 161036Z 19011KT 08/M01 A3012 RMK A01 T00831010  RH  052%=      5-min Rain = 0
KQU1 161037Z 19011KT 08/M01 A3012 RMK A01 T00831010  RH  052%=      5-min Rain = 0
KQU1 161038Z 19011KT 08/M01 A3012 RMK A01 T00831010  RH  052%=      5-min Rain = 0
KQU1 161039Z 19011KT 08/M01 A3012 RMK A01 T00821010  RH  052%=      5-min Rain = 0
KQU1 161040Z 19011KT 08/M01 A3012 RMK A01 T00821010  RH  052%=      5-min Rain = 0
KQU1 161041Z 19011KT 08/M01 A3012 RMK A01 T00821010  RH  052%=      5-min Rain = 0
KQU1 161042Z 19012KT 08/M01 A3012 RMK A01 T00821011  RH  052%=      5-min Rain = 0
KQU1 161043Z 19011KT 08/M01 A3012 RMK A01 T00821010  RH  052%=      5-min Rain = 0
KQU1 161044Z 19012KT 08/M01 A3012 RMK A01 T00821010  RH  052%=      5-min Rain = 0
KQU1 161045Z 19012KT 08/M01 A3012 RMK A01 T00831010  RH  052%=      5-min Rain = 0
KQU1 161046Z 19012KT 08/M01 A3012 RMK A01 T00831011  RH  052%=      5-min Rain = 0
KQU1 161047Z 19011KT 08/M01 A3012 RMK A01 T00821011  RH  052%=      5-min Rain = 0
KQU1 161048Z 19012KT 08/M01 A3012 RMK A01 T00821011  RH  052%=      5-min Rain = 0
KQU1 161049Z 19012KT 08/M01 A3012 RMK A01 T00811011  RH  052%=      5-min Rain = 0
KQU1 161050Z 19012KT 08/M01 A3012 RMK A01 T00821011  RH  052%=      5-min Rain = 0
KQU1 161051Z 19013KT 08/M01 A3012 RMK A01 T00821011  RH  052%=      5-min Rain = 0
KQU1 161052Z 19014KT 08/M01 A3012 RMK A01 T00821011  RH  052%=      5-min Rain = 0
KQU1 161053Z 19013KT 08/M01 A3012 RMK A01 T00821011  RH  052%=      5-min Rain = 0
KQU1 161054Z 19013KT 08/M01 A3012 RMK A01 T00821011  RH  052%=      5-min Rain = 0
KQU1 161055Z 19012KT 08/M01 A3012 RMK A01 T00821010  RH  052%=      5-min Rain = 0
KQU1 161056Z 19012KT 08/M01 A3012 RMK A01 T00811010  RH  052%=      5-min Rain = 0
KQU1 161057Z 19013KT 08/M01 A3012 RMK A01 T00811010  RH  053%=      5-min Rain = 0
KQU1 161058Z 19012KT 08/M01 A3012 RMK A01 T00801010  RH  053%=      5-min Rain = 0
KQU1 161059Z 19012KT 08/M01 A3012 RMK A01 T00801010  RH  053%=      5-min Rain = 0
KQU1 161100Z 19013KT 08/M01 A3012 RMK A01 T00791010  RH  053%=      5-min Rain = 0
KQU1 161101Z 19013KT 08/M01 A3011 RMK A01 T00791009  RH  054%=      5-min Rain = 0
KQU1 161102Z 19012KT 08/M01 A3011 RMK A01 T00791009  RH  054%=      5-min Rain = 0
KQU1 161103Z 19012KT 08/M01 A3011 RMK A01 T00791009  RH  054%=      5-min Rain = 0
KQU1 161104Z 19013KT 08/M01 A3011 RMK A01 T00791009  RH  054%=      5-min Rain = 0
KQU1 161105Z 19013KT 08/M01 A3011 RMK A01 T00781009  RH  054%=      5-min Rain = 0
KQU1 161106Z 19012KT 08/M01 A3011 RMK A01 T00781008  RH  054%=      5-min Rain = 0
KQU1 161107Z 19012KT 08/M01 A3011 RMK A01 T00791008  RH  054%=      5-min Rain = 0
KQU1 161108Z 19012KT 08/M01 A3011 RMK A01 T00781008  RH  054%=      5-min Rain = 0
KQU1 161109Z 19011KT 08/M01 A3011 RMK A01 T00781008  RH  054%=      5-min Rain = 0
KQU1 161110Z 19013KT 08/M01 A3011 RMK A01 T00771008  RH  055%=      5-min Rain = 0
KQU1 161111Z 19013KT 08/M01 A3011 RMK A01 T00771008  RH  055%=      5-min Rain = 0
KQU1 161112Z 18014KT 08/M01 A3011 RMK A01 T00771007  RH  055%=      5-min Rain = 0
KQU1 161113Z 19013KT 08/M01 A3011 RMK A01 T00771006  RH  055%=      5-min Rain = 0
KQU1 161114Z 19012G17KT 08/M01 A3011 RMK A01 T00781006  RH  055%=      5-min Rain = 0
KQU1 161115Z 18012KT 08/M01 A3011 RMK A01 T00771007  RH  055%=      5-min Rain = 0
KQU1 161116Z 18012KT 08/M01 A3011 RMK A01 T00771006  RH  056%=      5-min Rain = 0
KQU1 161117Z 18012KT 08/M01 A3011 RMK A01 T00771006  RH  056%=      5-min Rain = 0
KQU1 161118Z 18013KT 08/M01 A3011 RMK A01 T00761006  RH  056%=      5-min Rain = 0
KQU1 161119Z 18011KT 08/M01 A3011 RMK A01 T00761006  RH  056%=      5-min Rain = 0
KQU1 161120Z 19012KT 08/M01 A3011 RMK A01 T00761005  RH  057%=      5-min Rain = 0
KQU1 161121Z 18011KT 08/M01 A3011 RMK A01 T00761005  RH  057%=      5-min Rain = 0
KQU1 161122Z 18011KT 08/M00 A3011 RMK A01 T00751004  RH  057%=      5-min Rain = 0
KQU1 161123Z 18011KT 08/M00 A3011 RMK A01 T00761004  RH  057%=      5-min Rain = 0
KQU1 161124Z 18012KT 08/M00 A3011 RMK A01 T00761003  RH  057%=      5-min Rain = 0
KQU1 161125Z 18011KT 08/M00 A3011 RMK A01 T00761003  RH  057%=      5-min Rain = 0
KQU1 161126Z 18011KT 08/M00 A3011 RMK A01 T00761003  RH  057%=      5-min Rain = 0
KQU1 161127Z 18011KT 08/M00 A3011 RMK A01 T00751003  RH  058%=      5-min Rain = 0
KQU1 161128Z 18011KT 08/M00 A3011 RMK A01 T00761003  RH  058%=      5-min Rain = 0
KQU1 161129Z 18010KT 08/M00 A3011 RMK A01 T00751003  RH  058%=      5-min Rain = 0
KQU1 161130Z 18010KT 08/M00 A3011 RMK A01 T00751003  RH  058%=      5-min Rain = 0
KQU1 161131Z 18011KT 07/M00 A3011 RMK A01 T00741002  RH  058%=      5-min Rain = 0
KQU1 161132Z 18011KT 08/M00 A3011 RMK A01 T00751002  RH  058%=      5-min Rain = 0
KQU1 161133Z 18011KT 08/M00 A3011 RMK A01 T00751002  RH  058%=      5-min Rain = 0
KQU1 161134Z 18010KT 07/M00 A3011 RMK A01 T00741002  RH  058%=      5-min Rain = 0
KQU1 161135Z 18010KT 07/M00 A3011 RMK A01 T00741002  RH  059%=      5-min Rain = 0
KQU1 161136Z 19012KT 07/M00 A3011 RMK A01 T00741001  RH  059%=      5-min Rain = 0
KQU1 161137Z 19011KT 07/M00 A3011 RMK A01 T00741001  RH  059%=      5-min Rain = 0
KQU1 161138Z 19012KT 07/M00 A3011 RMK A01 T00741001  RH  059%=      5-min Rain = 0
KQU1 161139Z 18012KT 08/M00 A3011 RMK A01 T00751001  RH  059%=      5-min Rain = 0
KQU1 161140Z 18012KT 08/M00 A3011 RMK A01 T00751001  RH  059%=      5-min Rain = 0
KQU1 161141Z 18012KT 08/M00 A3011 RMK A01 T00751001  RH  059%=      5-min Rain = 0
KQU1 161142Z 19012KT 08/M00 A3011 RMK A01 T00751001  RH  059%=      5-min Rain = 0
KQU1 161143Z 18012KT 08/M00 A3011 RMK A01 T00751001  RH  059%=      5-min Rain = 0
KQU1 161144Z 19012KT 08/00 A3011 RMK A01 T007500-0  RH  059%=      5-min Rain = 0
KQU1 161145Z 19012KT 08/00 A3011 RMK A01 T007500-0  RH  059%=      5-min Rain = 0
KQU1 161146Z 19012KT 08/00 A3011 RMK A01 T007500-0  RH  059%=      5-min Rain = 0
KQU1 161147Z 19012KT 08/00 A3011 RMK A01 T007500-0  RH  059%=      5-min Rain = 0
KQU1 161148Z 19012KT 08/00 A3011 RMK A01 T007500-0  RH  059%=      5-min Rain = 0
KQU1 161149Z 19012KT 08/00 A3011 RMK A01 T007500-0  RH  059%=      5-min Rain = 0
KQU1 161150Z 19012KT 08/00 A3011 RMK A01 T007500-0  RH  059%=      5-min Rain = 0
KQU1 161151Z 19013KT 08/00 A3011 RMK A01 T00750000  RH  059%=      5-min Rain = 0
KQU1 161152Z 19013KT 08/00 A3011 RMK A01 T007500-0  RH  059%=      5-min Rain = 0
KQU1 161153Z 20013KT 08/00 A3011 RMK A01 T00750000  RH  059%=      5-min Rain = 0
KQU1 161154Z 20014KT 07/00 A3011 RMK A01 T007400-0  RH  059%=      5-min Rain = 0
KQU1 161155Z 20014KT 08/00 A3011 RMK A01 T00750000  RH  059%=      5-min Rain = 0
KQU1 161156Z 20014KT 08/00 A301 RMK A01 T00750000  RH  059%=      5-min Rain = 0
KQU1 161157Z 19014KT 08/00 A301 RMK A01 T00760001  RH  059%=      5-min Rain = 0
KQU1 161158Z 20014KT 08/00 A301 RMK A01 T00770001  RH  059%=      5-min Rain = 0
KQU1 161159Z 20016KT 08/00 A301 RMK A01 T00770001  RH  058%=      5-min Rain = 0
KQU1 161200Z 20014KT 08/00 A301 RMK A01 T00770000  RH  058%=      5-min Rain = 0
KQU1 161201Z 20014KT 08/00 A301 RMK A01 T00770000  RH  058%=      5-min Rain = 0
KQU1 161202Z 20014KT 08/00 A301 RMK A01 T00770000  RH  058%=      5-min Rain = 0
KQU1 161203Z 19013KT 08/00 A301 RMK A01 T00760000  RH  059%=      5-min Rain = 0
KQU1 161204Z 20015KT 08/00 A301 RMK A01 T00750000  RH  059%=      5-min Rain = 0
KQU1 161205Z 20015KT 08/00 A301 RMK A01 T00750001  RH  059%=      5-min Rain = 0
KQU1 161206Z 20014KT 08/00 A301 RMK A01 T00760000  RH  059%=      5-min Rain = 0
KQU1 161207Z 20015KT 08/00 A301 RMK A01 T00760000  RH  059%=      5-min Rain = 0
KQU1 161208Z 20016KT 08/00 A301 RMK A01 T00760000  RH  059%=      5-min Rain = 0
KQU1 161209Z 20015KT 08/00 A301 RMK A01 T00770001  RH  059%=      5-min Rain = 0
KQU1 161210Z 20015KT 08/00 A301 RMK A01 T00760000  RH  058%=      5-min Rain = 0
KQU1 161211Z 20014KT 08/00 A301 RMK A01 T007600-0  RH  059%=      5-min Rain = 0
KQU1 161212Z 19014KT 08/00 A301 RMK A01 T007500-0  RH  059%=      5-min Rain = 0
KQU1 161213Z 20014KT 08/00 A301 RMK A01 T00750000  RH  059%=      5-min Rain = 0
KQU1 161214Z 20014KT 08/00 A301 RMK A01 T00750000  RH  059%=      5-min Rain = 0
KQU1 161215Z 20015KT 08/00 A301 RMK A01 T00750000  RH  059%=      5-min Rain = 0
KQU1 161216Z 20015KT 08/00 A301 RMK A01 T00750000  RH  059%=      5-min Rain = 0
KQU1 161217Z 20014KT 08/00 A301 RMK A01 T007500-0  RH  059%=      5-min Rain = 0
KQU1 161218Z 20013KT 08/00 A301 RMK A01 T00750000  RH  059%=      5-min Rain = 0
KQU1 161219Z 20014KT 08/00 A301 RMK A01 T00750000  RH  059%=      5-min Rain = 0
KQU1 161220Z 20013KT 08/00 A301 RMK A01 T007500-0  RH  059%=      5-min Rain = 0
KQU1 161221Z 20013KT 07/00 A301 RMK A01 T007400-0  RH  059%=      5-min Rain = 0
KQU1 161222Z 20013KT 07/00 A301 RMK A01 T007400-0  RH  059%=      5-min Rain = 0
KQU1 161223Z 20013KT 07/00 A301 RMK A01 T007400-0  RH  059%=      5-min Rain = 0
KQU1 161224Z 20011KT 07/00 A301 RMK A01 T007400-0  RH  059%=      5-min Rain = 0
KQU1 161225Z 20012KT 07/M00 A301 RMK A01 T00731001  RH  060%=      5-min Rain = 0
KQU1 161226Z 20012KT 07/M00 A301 RMK A01 T00721001  RH  060%=      5-min Rain = 0
KQU1 161227Z 20011KT 07/M00 A301 RMK A01 T00721001  RH  060%=      5-min Rain = 0
KQU1 161228Z 20012KT 07/00 A301 RMK A01 T007100-0  RH  060%=      5-min Rain = 0
KQU1 161229Z 20011KT 07/M00 A301 RMK A01 T00711001  RH  060%=      5-min Rain = 0
KQU1 161230Z 20011KT 07/M00 A301 RMK A01 T00711001  RH  060%=      5-min Rain = 0
KQU1 161231Z 20011KT 07/M00 A301 RMK A01 T00701001  RH  061%=      5-min Rain = 0
KQU1 161232Z 20010KT 07/M00 A301 RMK A01 T00691001  RH  061%=      5-min Rain = 0
KQU1 161233Z 20010KT 07/M00 A301 RMK A01 T00691001  RH  061%=      5-min Rain = 0
KQU1 161234Z 20009KT 07/M00 A301 RMK A01 T00681001  RH  061%=      5-min Rain = 0
KQU1 161235Z 20010KT 07/M00 A301 RMK A01 T00681001  RH  062%=      5-min Rain = 0
KQU1 161236Z 20010KT 07/M00 A301 RMK A01 T00671001  RH  062%=      5-min Rain = 0
KQU1 161237Z 20010KT 07/M00 A301 RMK A01 T00661001  RH  062%=      5-min Rain = 0
KQU1 161238Z 20009KT 07/M00 A301 RMK A01 T00661001  RH  062%=      5-min Rain = 0
KQU1 161239Z 20009KT 07/M00 A301 RMK A01 T00651002  RH  062%=      5-min Rain = 0
KQU1 161240Z 21009KT 06/M00 A301 RMK A01 T00641002  RH  063%=      5-min Rain = 0
KQU1 161241Z 21010KT 06/M00 A301 RMK A01 T00631002  RH  063%=      5-min Rain = 0
KQU1 161242Z 21010KT 06/M00 A301 RMK A01 T00621002  RH  063%=      5-min Rain = 0
KQU1 161243Z 20010KT 06/M00 A301 RMK A01 T00621002  RH  063%=      5-min Rain = 0
KQU1 161244Z 20010KT 06/M00 A301 RMK A01 T00611002  RH  064%=      5-min Rain = 0
KQU1 161245Z 21010KT 06/M00 A3011 RMK A01 T00611002  RH  064%=      5-min Rain = 0
KQU1 161246Z 20010KT 06/M00 A3011 RMK A01 T00601003  RH  064%=      5-min Rain = 0
KQU1 161247Z 20010KT 06/M00 A3011 RMK A01 T00601003  RH  064%=      5-min Rain = 0
KQU1 161248Z 20010KT 06/M00 A3011 RMK A01 T00591003  RH  064%=      5-min Rain = 0
KQU1 161249Z 20010KT 06/M00 A3011 RMK A01 T00581003  RH  065%=      5-min Rain = 0
KQU1 161250Z 20010KT 06/M00 A3011 RMK A01 T00571003  RH  065%=      5-min Rain = 0
KQU1 161251Z 20010KT 06/M00 A3011 RMK A01 T00561004  RH  065%=      5-min Rain = 0
KQU1 161252Z 20010KT 06/M00 A3011 RMK A01 T00551004  RH  066%=      5-min Rain = 0
KQU1 161253Z 20010KT 06/M00 A3011 RMK A01 T00551004  RH  066%=      5-min Rain = 0
KQU1 161254Z 20010KT 05/M00 A3011 RMK A01 T00541004  RH  066%=      5-min Rain = 0
KQU1 161255Z 20009KT 05/M00 A3011 RMK A01 T00541004  RH  066%=      5-min Rain = 0
KQU1 161256Z 20009KT 05/M00 A3011 RMK A01 T00541004  RH  066%=      5-min Rain = 0
KQU1 161257Z 20009KT 05/M00 A3011 RMK A01 T00531004  RH  067%=      5-min Rain = 0
KQU1 161258Z 20009KT 05/M01 A3011 RMK A01 T00521005  RH  067%=      5-min Rain = 0
KQU1 161259Z 20009KT 05/M01 A3011 RMK A01 T00511005  RH  067%=      5-min Rain = 0
KQU1 161300Z 20009KT 05/M01 A3011 RMK A01 T00501005  RH  068%=      5-min Rain = 0
KQU1 161301Z 20009KT 05/M01 A301 RMK A01 T00491005  RH  068%=      5-min Rain = 0
KQU1 161302Z 20009KT 05/M01 A301 RMK A01 T00481005  RH  068%=      5-min Rain = 0
KQU1 161303Z 20010KT 05/M01 A301 RMK A01 T00481005  RH  068%=      5-min Rain = 0
KQU1 161304Z 20010KT 05/M01 A301 RMK A01 T00481005  RH  069%=      5-min Rain = 0
KQU1 161305Z 20009KT 05/M01 A301 RMK A01 T00471005  RH  069%=      5-min Rain = 0
KQU1 161306Z 20009KT 05/M01 A301 RMK A01 T00471005  RH  069%=      5-min Rain = 0
KQU1 161307Z 20009KT 05/M01 A301 RMK A01 T00461005  RH  069%=      5-min Rain = 0
KQU1 161308Z 20010KT 05/M01 A301 RMK A01 T00461005  RH  069%=      5-min Rain = 0
KQU1 161309Z 20010KT 05/M01 A301 RMK A01 T00461005  RH  070%=      5-min Rain = 0
KQU1 161310Z 19010KT 05/M00 A301 RMK A01 T00461004  RH  070%=      5-min Rain = 0
KQU1 161311Z 19010KT 05/M00 A301 RMK A01 T00471004  RH  070%=      5-min Rain = 0
KQU1 161312Z 20009KT 05/M00 A301 RMK A01 T00471004  RH  070%=      5-min Rain = 0
KQU1 161313Z 20009KT 05/M00 A301 RMK A01 T00471004  RH  069%=      5-min Rain = 0
KQU1 161314Z 20009KT 05/M00 A301 RMK A01 T00471004  RH  069%=      5-min Rain = 0
KQU1 161315Z 20009KT 05/M01 A301 RMK A01 T00471005  RH  069%=      5-min Rain = 0
KQU1 161316Z 20010KT 05/M01 A301 RMK A01 T00461005  RH  069%=      5-min Rain = 0
KQU1 161317Z 21010KT 05/M01 A301 RMK A01 T00451005  RH  070%=      5-min Rain = 0
KQU1 161318Z 21010KT 05/M01 A301 RMK A01 T00451006  RH  070%=      5-min Rain = 0
KQU1 161319Z 21009KT 04/M01 A301 RMK A01 T00441006  RH  070%=      5-min Rain = 0
KQU1 161320Z 21009KT 04/M01 A301 RMK A01 T00431006  RH  070%=      5-min Rain = 0
KQU1 161321Z 21009KT 04/M01 A301 RMK A01 T00431006  RH  071%=      5-min Rain = 0
KQU1 161322Z 21009KT 04/M01 A3011 RMK A01 T00421006  RH  071%=      5-min Rain = 0
KQU1 161323Z 21009KT 04/M01 A3011 RMK A01 T00421005  RH  071%=      5-min Rain = 0
KQU1 161324Z 21009KT 04/M00 A3011 RMK A01 T00431004  RH  071%=      5-min Rain = 0
KQU1 161325Z 21009KT 04/M00 A3011 RMK A01 T00441003  RH  071%=      5-min Rain = 0
KQU1 161326Z 21009KT 05/M00 A3011 RMK A01 T00451002  RH  071%=      5-min Rain = 0
KQU1 161327Z 21008KT 05/M00 A301 RMK A01 T00471002  RH  071%=      5-min Rain = 0
KQU1 161328Z 21008KT 05/M00 A301 RMK A01 T00481002  RH  070%=      5-min Rain = 0
KQU1 161329Z 21007KT 05/M00 A301 RMK A01 T00491001  RH  070%=      5-min Rain = 0
KQU1 161330Z 21008KT 05/M00 A301 RMK A01 T00501001  RH  070%=      5-min Rain = 0
KQU1 161331Z 20007KT 05/M00 A301 RMK A01 T00511001  RH  069%=      5-min Rain = 0
KQU1 161332Z 20007KT 05/M00 A301 RMK A01 T00521001  RH  069%=      5-min Rain = 0
KQU1 161333Z 20007KT 05/00 A301 RMK A01 T005200-0  RH  069%=      5-min Rain = 0
KQU1 161334Z 20007KT 05/00 A301 RMK A01 T005300-0  RH  068%=      5-min Rain = 0
KQU1 161335Z 20007KT 05/00 A301 RMK A01 T005400-0  RH  068%=      5-min Rain = 0
KQU1 161336Z 20008KT 05/00 A301 RMK A01 T00540000  RH  068%=      5-min Rain = 0
KQU1 161337Z 20008KT 06/00 A301 RMK A01 T00550000  RH  068%=      5-min Rain = 0
KQU1 161338Z 20008KT 06/00 A301 RMK A01 T00560001  RH  068%=      5-min Rain = 0
KQU1 161339Z 20007KT 06/00 A301 RMK A01 T00570001  RH  067%=      5-min Rain = 0
KQU1 161340Z 20008KT 06/00 A301 RMK A01 T00570001  RH  067%=      5-min Rain = 0
KQU1 161341Z 20008KT 06/00 A301 RMK A01 T00570001  RH  067%=      5-min Rain = 0
KQU1 161342Z 20007KT 06/00 A301 RMK A01 T00580001  RH  067%=      5-min Rain = 0
KQU1 161343Z 20007KT 06/00 A3011 RMK A01 T00580001  RH  067%=      5-min Rain = 0
KQU1 161344Z 20007KT 06/00 A3011 RMK A01 T00580001  RH  067%=      5-min Rain = 0
KQU1 161345Z 20008KT 06/00 A3011 RMK A01 T00580001  RH  067%=      5-min Rain = 0
KQU1 161346Z 20008KT 06/00 A3011 RMK A01 T00580001  RH  067%=      5-min Rain = 0
KQU1 161347Z 19008KT 06/00 A3011 RMK A01 T00590001  RH  067%=      5-min Rain = 0
KQU1 161348Z 19008KT 06/00 A3011 RMK A01 T00580001  RH  067%=      5-min Rain = 0
KQU1 161349Z 19007KT 06/00 A3011 RMK A01 T00580001  RH  067%=      5-min Rain = 0
KQU1 161350Z 19007KT 06/00 A3011 RMK A01 T00580001  RH  067%=      5-min Rain = 0
KQU1 161351Z 19008KT 06/00 A3011 RMK A01 T00580001  RH  067%=      5-min Rain = 0
KQU1 161352Z 19007KT 06/00 A3011 RMK A01 T00570001  RH  067%=      5-min Rain = 0
KQU1 161353Z 19008KT 06/00 A3011 RMK A01 T00580001  RH  067%=      5-min Rain = 0
KQU1 161354Z 19007KT 06/00 A3011 RMK A01 T00580001  RH  067%=      5-min Rain = 0
KQU1 161355Z 19008KT 06/00 A3011 RMK A01 T00580002  RH  067%=      5-min Rain = 0
KQU1 161356Z 19008KT 06/00 A3011 RMK A01 T00580002  RH  067%=      5-min Rain = 0
KQU1 161357Z 20008KT 06/00 A3011 RMK A01 T00590002  RH  067%=      5-min Rain = 0
KQU1 161358Z 19008KT 06/00 A3011 RMK A01 T00590002  RH  067%=      5-min Rain = 0
KQU1 161359Z 19009KT 06/00 A3011 RMK A01 T00600003  RH  066%=      5-min Rain = 0
KQU1 161400Z 19010KT 06/00 A3011 RMK A01 T00610003  RH  066%=      5-min Rain = 0
KQU1 161401Z 19009KT 06/00 A3011 RMK A01 T00620003  RH  065%=      5-min Rain = 0
KQU1 161402Z 19011KT 06/00 A3011 RMK A01 T00630003  RH  065%=      5-min Rain = 0
KQU1 161403Z 19009KT 06/00 A3011 RMK A01 T00640003  RH  065%=      5-min Rain = 0
KQU1 161404Z 19011KT 07/00 A301 RMK A01 T00650003  RH  065%=      5-min Rain = 0
KQU1 161405Z 19011KT 07/00 A301 RMK A01 T00660003  RH  064%=      5-min Rain = 0
KQU1 161406Z 20011KT 07/00 A301 RMK A01 T00670003  RH  064%=      5-min Rain = 0
KQU1 161407Z 20011KT 07/00 A3011 RMK A01 T00670003  RH  064%=      5-min Rain = 0
KQU1 161408Z 20013KT 07/00 A3011 RMK A01 T00680003  RH  064%=      5-min Rain = 0
KQU1 161409Z 19013KT 07/00 A3011 RMK A01 T00690003  RH  063%=      5-min Rain = 0
KQU1 161410Z 19011KT 07/00 A3011 RMK A01 T00690004  RH  063%=      5-min Rain = 0
KQU1 161411Z 20011KT 07/00 A3011 RMK A01 T00690004  RH  063%=      5-min Rain = 0
KQU1 161412Z 20010KT 07/00 A3011 RMK A01 T00700004  RH  063%=      5-min Rain = 0
KQU1 161413Z 20012KT 07/00 A3011 RMK A01 T00700004  RH  063%=      5-min Rain = 0
KQU1 161414Z 20012G17KT 07/00 A3011 RMK A01 T00710004  RH  063%=      5-min Rain = 0
KQU1 161415Z 21012KT 07/00 A3011 RMK A01 T00720004  RH  062%=      5-min Rain = 0
KQU1 161416Z 20012KT 07/00 A301 RMK A01 T00720004  RH  062%=      5-min Rain = 0
KQU1 161417Z 20013KT 07/00 A301 RMK A01 T00730004  RH  062%=      5-min Rain = 0
KQU1 161418Z 20013KT 07/00 A301 RMK A01 T00730004  RH  062%=      5-min Rain = 0
KQU1 161419Z 20014KT 07/00 A301 RMK A01 T00740004  RH  061%=      5-min Rain = 0
KQU1 161420Z 20013KT 07/00 A301 RMK A01 T00740004  RH  061%=      5-min Rain = 0
KQU1 161421Z 20014KT 08/00 A301 RMK A01 T00750004  RH  061%=      5-min Rain = 0
KQU1 161422Z 20015KT 08/00 A301 RMK A01 T00750004  RH  061%=      5-min Rain = 0
KQU1 161423Z 21014KT 08/00 A301 RMK A01 T00750004  RH  061%=      5-min Rain = 0
KQU1 161424Z 21014KT 08/00 A301 RMK A01 T00760004  RH  061%=      5-min Rain = 0
KQU1 161425Z 21014KT 08/01 A301 RMK A01 T00760005  RH  061%=      5-min Rain = 0
KQU1 161426Z 20012KT 08/01 A301 RMK A01 T00760005  RH  061%=      5-min Rain = 0
KQU1 161427Z 20014KT 08/01 A301 RMK A01 T00760005  RH  060%=      5-min Rain = 0
KQU1 161428Z 20014KT 08/01 A301 RMK A01 T00770005  RH  061%=      5-min Rain = 0
KQU1 161429Z 20014KT 08/01 A301 RMK A01 T00770005  RH  060%=      5-min Rain = 0
KQU1 161430Z 20015KT 08/01 A301 RMK A01 T00770005  RH  060%=      5-min Rain = 0
KQU1 161431Z 20013KT 08/01 A301 RMK A01 T00770005  RH  060%=      5-min Rain = 0
KQU1 161432Z 20014KT 08/01 A301 RMK A01 T00780005  RH  060%=      5-min Rain = 0
KQU1 161433Z 20013KT 08/01 A301 RMK A01 T00780006  RH  060%=      5-min Rain = 0
KQU1 161434Z 20015KT 08/01 A301 RMK A01 T00780006  RH  060%=      5-min Rain = 0
KQU1 161435Z 20013KT 08/01 A301 RMK A01 T00790006  RH  060%=      5-min Rain = 0
KQU1 161436Z 20014KT 08/01 A301 RMK A01 T00790006  RH  060%=      5-min Rain = 0
KQU1 161437Z 21014KT 08/01 A301 RMK A01 T00800006  RH  060%=      5-min Rain = 0
KQU1 161438Z 20014KT 08/01 A301 RMK A01 T00800006  RH  060%=      5-min Rain = 0
KQU1 161439Z 20013KT 08/01 A301 RMK A01 T00800006  RH  060%=      5-min Rain = 0
KQU1 161440Z 21013KT 08/01 A301 RMK A01 T00810007  RH  059%=      5-min Rain = 0
KQU1 161441Z 20012KT 08/01 A301 RMK A01 T00810007  RH  060%=      5-min Rain = 0
KQU1 161442Z 21013KT 08/01 A301 RMK A01 T00820007  RH  059%=      5-min Rain = 0
KQU1 161443Z 21014KT 08/01 A301 RMK A01 T00820007  RH  059%=      5-min Rain = 0
KQU1 161444Z 20013KT 08/01 A301 RMK A01 T00820007  RH  059%=      5-min Rain = 0
KQU1 161445Z 20013KT 08/01 A301 RMK A01 T00830007  RH  059%=      5-min Rain = 0
KQU1 161446Z 20013KT 08/01 A301 RMK A01 T00830007  RH  059%=      5-min Rain = 0
KQU1 161447Z 20014KT 08/01 A301 RMK A01 T00830007  RH  059%=      5-min Rain = 0
KQU1 161448Z 20014KT 08/01 A301 RMK A01 T00830007  RH  059%=      5-min Rain = 0
KQU1 161449Z 20014KT 08/01 A301 RMK A01 T00840007  RH  059%=      5-min Rain = 0
KQU1 161450Z 20012KT 08/01 A301 RMK A01 T00840008  RH  059%=      5-min Rain = 0
KQU1 161451Z 20012KT 09/01 A301 RMK A01 T00850009  RH  059%=      5-min Rain = 0
KQU1 161452Z 20014KT 09/01 A301 RMK A01 T00860009  RH  058%=      5-min Rain = 0
KQU1 161453Z 20013KT 09/01 A301 RMK A01 T00870009  RH  058%=      5-min Rain = 0
KQU1 161454Z 20012KT 09/01 A301 RMK A01 T00880010  RH  058%=      5-min Rain = 0
KQU1 161455Z 20015KT 09/01 A301 RMK A01 T00890009  RH  057%=      5-min Rain = 0
KQU1 161456Z 20013KT 09/01 A301 RMK A01 T00900010  RH  057%=      5-min Rain = 0
KQU1 161457Z 20016KT 09/01 A301 RMK A01 T00910010  RH  057%=      5-min Rain = 0
KQU1 161458Z 20015KT 09/01 A301 RMK A01 T00920010  RH  057%=      5-min Rain = 0
KQU1 161459Z 20015KT 09/01 A301 RMK A01 T00920010  RH  056%=      5-min Rain = 0
KQU1 161500Z 20015KT 09/01 A301 RMK A01 T00930010  RH  056%=      5-min Rain = 0
KQU1 161501Z 20014KT 09/01 A301 RMK A01 T00940011  RH  056%=      5-min Rain = 0
KQU1 161502Z 20016KT 10/01 A301 RMK A01 T00950011  RH  055%=      5-min Rain = 0
KQU1 161503Z 20017KT 10/01 A301 RMK A01 T00960010  RH  055%=      5-min Rain = 0
KQU1 161504Z 20015KT 10/01 A3009 RMK A01 T00970011  RH  055%=      5-min Rain = 0
KQU1 161505Z 20015KT 10/01 A3009 RMK A01 T00990012  RH  055%=      5-min Rain = 0
KQU1 161506Z 20016KT 10/01 A3009 RMK A01 T00990011  RH  054%=      5-min Rain = 0
KQU1 161507Z 20015KT 10/01 A3009 RMK A01 T01010013  RH  054%=      5-min Rain = 0
KQU1 161508Z 20016KT 10/01 A3009 RMK A01 T01020011  RH  053%=      5-min Rain = 0
KQU1 161509Z 20017KT 10/01 A3009 RMK A01 T01020011  RH  053%=      5-min Rain = 0
KQU1 161510Z 20017KT 10/01 A3009 RMK A01 T01030011  RH  053%=      5-min Rain = 0
KQU1 161511Z 21015KT 10/01 A3009 RMK A01 T01040012  RH  053%=      5-min Rain = 0
KQU1 161512Z 21017KT 10/01 A3009 RMK A01 T01040011  RH  053%=      5-min Rain = 0
KQU1 161513Z 20017KT 11/01 A3009 RMK A01 T01050012  RH  052%=      5-min Rain = 0
KQU1 161514Z 20017KT 11/01 A3009 RMK A01 T01060011  RH  052%=      5-min Rain = 0
KQU1 161515Z 21017KT 11/01 A3009 RMK A01 T01060011  RH  052%=      5-min Rain = 0
KQU1 161516Z 21017KT 11/01 A3009 RMK A01 T01070012  RH  052%=      5-min Rain = 0
KQU1 161517Z 20018KT 11/01 A3009 RMK A01 T01080012  RH  052%=      5-min Rain = 0
KQU1 161518Z 20017KT 11/01 A3009 RMK A01 T01090012  RH  051%=      5-min Rain = 0
KQU1 161519Z 21016KT 11/01 A301 RMK A01 T01100012  RH  051%=      5-min Rain = 0
KQU1 161520Z 20014KT 11/01 A301 RMK A01 T01110014  RH  051%=      5-min Rain = 0
KQU1 161521Z 20016KT 11/01 A301 RMK A01 T01120011  RH  050%=      5-min Rain = 0
KQU1 161522Z 20015KT 11/01 A301 RMK A01 T01120012  RH  050%=      5-min Rain = 0
KQU1 161523Z 20017KT 11/01 A301 RMK A01 T01130012  RH  050%=      5-min Rain = 0
KQU1 161524Z 21016KT 11/01 A301 RMK A01 T01130011  RH  049%=      5-min Rain = 0
KQU1 161525Z 20016KT 11/01 A301 RMK A01 T01140012  RH  049%=      5-min Rain = 0
KQU1 161526Z 20013KT 12/01 A301 RMK A01 T01150013  RH  049%=      5-min Rain = 0
KQU1 161527Z 20013KT 12/01 A3009 RMK A01 T01160013  RH  049%=      5-min Rain = 0
KQU1 161528Z 19014KT 12/01 A3009 RMK A01 T01170013  RH  049%=      5-min Rain = 0
KQU1 161529Z 20015KT 12/01 A3009 RMK A01 T01180013  RH  048%=      5-min Rain = 0
KQU1 161530Z 20017KT 12/01 A3009 RMK A01 T01180011  RH  048%=      5-min Rain = 0
KQU1 161531Z 20016KT 12/01 A3009 RMK A01 T01180011  RH  048%=      5-min Rain = 0
KQU1 161532Z 20017KT 12/01 A3009 RMK A01 T01180012  RH  048%=      5-min Rain = 0
KQU1 161533Z 20016KT 12/01 A3009 RMK A01 T01190011  RH  048%=      5-min Rain = 0
KQU1 161534Z 19018KT 12/01 A3009 RMK A01 T01190012  RH  048%=      5-min Rain = 0
KQU1 161535Z 20017KT 12/01 A3009 RMK A01 T01200011  RH  047%=      5-min Rain = 0
KQU1 161536Z 20016KT 12/01 A3009 RMK A01 T01200012  RH  047%=      5-min Rain = 0
KQU1 161537Z 20017KT 12/01 A3009 RMK A01 T01210012  RH  047%=      5-min Rain = 0
KQU1 161538Z 19016KT 12/01 A3009 RMK A01 T01220011  RH  047%=      5-min Rain = 0
KQU1 161539Z 20015KT 12/01 A3009 RMK A01 T01220011  RH  047%=      5-min Rain = 0
KQU1 161540Z 19016KT 12/01 A3009 RMK A01 T01230011  RH  046%=      5-min Rain = 0
KQU1 161541Z 20015KT 12/01 A3009 RMK A01 T01230011  RH  046%=      5-min Rain = 0
KQU1 161542Z 20016KT 12/01 A3009 RMK A01 T01240010  RH  046%=      5-min Rain = 0
KQU1 161543Z 19017KT 12/01 A3009 RMK A01 T01230009  RH  046%=      5-min Rain = 0
KQU1 161544Z 19016KT 12/01 A3009 RMK A01 T01230010  RH  046%=      5-min Rain = 0
KQU1 161545Z 19016KT 12/01 A3009 RMK A01 T01230010  RH  046%=      5-min Rain = 0
KQU1 161546Z 19016KT 12/01 A3009 RMK A01 T01230010  RH  046%=      5-min Rain = 0
KQU1 161547Z 19017KT 12/01 A3009 RMK A01 T01230010  RH  046%=      5-min Rain = 0
KQU1 161548Z 19014KT 12/01 A3009 RMK A01 T01240011  RH  046%=      5-min Rain = 0
KQU1 161549Z 19014G19KT 13/01 A3009 RMK A01 T01250012  RH  046%=      5-min Rain = 0
KQU1 161550Z 20016KT 13/01 A3009 RMK A01 T01270011  RH  045%=      5-min Rain = 0
KQU1 161551Z 21014KT 13/01 A3009 RMK A01 T01280012  RH  045%=      5-min Rain = 0
KQU1 161552Z 21014KT 13/01 A3009 RMK A01 T01280011  RH  045%=      5-min Rain = 0
KQU1 161553Z 20017KT 13/01 A3009 RMK A01 T01280009  RH  044%=      5-min Rain = 0
KQU1 161554Z 20017KT 13/01 A3009 RMK A01 T01270010  RH  045%=      5-min Rain = 0
KQU1 161555Z 20016KT 13/01 A3009 RMK A01 T01270010  RH  045%=      5-min Rain = 0
KQU1 161556Z 20016KT 13/01 A3009 RMK A01 T01270010  RH  045%=      5-min Rain = 0
KQU1 161557Z 20016KT 13/01 A3009 RMK A01 T01270010  RH  045%=      5-min Rain = 0
KQU1 161558Z 21015KT 13/01 A3009 RMK A01 T01280011  RH  045%=      5-min Rain = 0
KQU1 161559Z 20018KT 13/01 A3009 RMK A01 T01280010  RH  044%=      5-min Rain = 0
KQU1 161600Z 20019KT 13/01 A3009 RMK A01 T01280010  RH  044%=      5-min Rain = 0
KQU1 161601Z 21018KT 13/01 A3009 RMK A01 T01280010  RH  044%=      5-min Rain = 0
KQU1 161602Z 21017KT 13/01 A3009 RMK A01 T01280010  RH  044%=      5-min Rain = 0
KQU1 161603Z 20019KT 13/01 A3009 RMK A01 T01280010  RH  044%=      5-min Rain = 0
KQU1 161604Z 21018KT 13/01 A3009 RMK A01 T01280009  RH  044%=      5-min Rain = 0
KQU1 161605Z 20017KT 13/01 A3009 RMK A01 T01280011  RH  045%=      5-min Rain = 0
KQU1 161606Z 19017KT 13/01 A3009 RMK A01 T01290011  RH  044%=      5-min Rain = 0
KQU1 161607Z 19017KT 13/01 A3009 RMK A01 T01300011  RH  044%=      5-min Rain = 0
KQU1 161608Z 20016KT 13/01 A3009 RMK A01 T01310011  RH  044%=      5-min Rain = 0
KQU1 161609Z 20017KT 13/01 A3009 RMK A01 T01310011  RH  044%=      5-min Rain = 0
KQU1 161610Z 19016KT 13/01 A3009 RMK A01 T01320012  RH  044%=      5-min Rain = 0
KQU1 161611Z 19015KT 13/01 A3009 RMK A01 T01320011  RH  044%=      5-min Rain = 0
KQU1 161612Z 20015KT 13/01 A3009 RMK A01 T01330012  RH  044%=      5-min Rain = 0
KQU1 161613Z 20016KT 13/01 A3009 RMK A01 T01330011  RH  043%=      5-min Rain = 0
KQU1 161614Z 20016KT 13/01 A3009 RMK A01 T01330011  RH  043%=      5-min Rain = 0
KQU1 161615Z 20016KT 13/01 A3009 RMK A01 T01340010  RH  043%=      5-min Rain = 0
KQU1 161616Z 21015KT 13/01 A3009 RMK A01 T01340012  RH  043%=      5-min Rain = 0
KQU1 161617Z 20016KT 14/01 A3009 RMK A01 T01360011  RH  043%=      5-min Rain = 0
KQU1 161618Z 20016KT 14/01 A3009 RMK A01 T01370011  RH  042%=      5-min Rain = 0
KQU1 161619Z 20016KT 14/01 A3009 RMK A01 T01380010  RH  042%=      5-min Rain = 0
KQU1 161620Z 20015KT 14/01 A3009 RMK A01 T01380011  RH  042%=      5-min Rain = 0
KQU1 161621Z 20017KT 14/01 A3009 RMK A01 T01390011  RH  042%=      5-min Rain = 0
KQU1 161622Z 21016KT 14/01 A3009 RMK A01 T01380010  RH  042%=      5-min Rain = 0
KQU1 161623Z 20016KT 14/01 A3009 RMK A01 T01390011  RH  042%=      5-min Rain = 0
KQU1 161624Z 20016KT 14/01 A3009 RMK A01 T01390011  RH  042%=      5-min Rain = 0
KQU1 161625Z 21017KT 14/01 A3008 RMK A01 T01390009  RH  041%=      5-min Rain = 0
KQU1 161626Z 21014KT 14/01 A3009 RMK A01 T01390010  RH  041%=      5-min Rain = 0
KQU1 161627Z 21015KT 14/01 A3009 RMK A01 T01400011  RH  041%=      5-min Rain = 0
KQU1 161628Z 20017KT 14/01 A3009 RMK A01 T01410011  RH  041%=      5-min Rain = 0
KQU1 161629Z 20016KT 14/01 A3009 RMK A01 T01410010  RH  041%=      5-min Rain = 0
KQU1 161630Z 19016KT 14/01 A3009 RMK A01 T01400011  RH  041%=      5-min Rain = 0
KQU1 161631Z 19015KT 14/01 A3009 RMK A01 T01400012  RH  042%=      5-min Rain = 0
KQU1 161632Z 19015KT 14/01 A3008 RMK A01 T01410011  RH  041%=      5-min Rain = 0
KQU1 161633Z 20016KT 14/01 A3008 RMK A01 T01410011  RH  041%=      5-min Rain = 0
KQU1 161634Z 20017KT 14/01 A3008 RMK A01 T01410010  RH  041%=      5-min Rain = 0
KQU1 161635Z 19017KT 14/01 A3008 RMK A01 T01410011  RH  041%=      5-min Rain = 0
KQU1 161636Z 19016KT 14/01 A3008 RMK A01 T01420011  RH  041%=      5-min Rain = 0
KQU1 161637Z 19016KT 14/01 A3008 RMK A01 T01420011  RH  041%=      5-min Rain = 0
KQU1 161638Z 20014KT 14/01 A3008 RMK A01 T01430012  RH  041%=      5-min Rain = 0
KQU1 161639Z 20013KT 15/01 A3008 RMK A01 T01450013  RH  041%=      5-min Rain = 0
KQU1 161640Z 19016KT 15/01 A3008 RMK A01 T01460011  RH  040%=      5-min Rain = 0
KQU1 161641Z 18015KT 15/01 A3008 RMK A01 T01450010  RH  040%=      5-min Rain = 0
KQU1 161642Z 19016KT 15/01 A3008 RMK A01 T01450011  RH  040%=      5-min Rain = 0
KQU1 161643Z 19016KT 14/01 A3008 RMK A01 T01430010  RH  040%=      5-min Rain = 0
KQU1 161644Z 19015KT 14/01 A3008 RMK A01 T01420010  RH  041%=      5-min Rain = 0
KQU1 161645Z 19013KT 14/01 A3008 RMK A01 T01420011  RH  041%=      5-min Rain = 0
KQU1 161646Z 19014KT 14/01 A3008 RMK A01 T01430012  RH  041%=      5-min Rain = 0
KQU1 161647Z 19016KT 14/01 A3008 RMK A01 T01440012  RH  041%=      5-min Rain = 0
KQU1 161648Z 20016KT 15/01 A3008 RMK A01 T01450011  RH  040%=      5-min Rain = 0
KQU1 161649Z 20016KT 15/01 A3008 RMK A01 T01450011  RH  040%=      5-min Rain = 0
KQU1 161650Z 20015KT 14/01 A3008 RMK A01 T01440010  RH  040%=      5-min Rain = 0
KQU1 161651Z 20013KT 14/01 A3008 RMK A01 T01430011  RH  041%=      5-min Rain = 0
KQU1 161652Z 19012KT 14/01 A3008 RMK A01 T01440012  RH  041%=      5-min Rain = 0
KQU1 161653Z 20012KT 15/01 A3008 RMK A01 T01460014  RH  041%=      5-min Rain = 0
KQU1 161654Z 20012KT 15/01 A3008 RMK A01 T01470013  RH  040%=      5-min Rain = 0
KQU1 161655Z 20012KT 15/01 A3008 RMK A01 T01490013  RH  040%=      5-min Rain = 0
KQU1 161656Z 19012KT 15/01 A3008 RMK A01 T01500012  RH  039%=      5-min Rain = 0
KQU1 161657Z 20012KT 15/01 A3008 RMK A01 T01500014  RH  040%=      5-min Rain = 0
KQU1 161658Z 21011KT 15/02 A3008 RMK A01 T01520015  RH  039%=      5-min Rain = 0
KQU1 161659Z 21012KT 15/01 A3008 RMK A01 T01540014  RH  039%=      5-min Rain = 0
KQU1 161700Z 21012KT 16/01 A3008 RMK A01 T01550012  RH  038%=      5-min Rain = 0
KQU1 161701Z 20011KT 15/01 A3008 RMK A01 T01530011  RH  038%=      5-min Rain = 0
KQU1 161702Z 20010KT 15/01 A3008 RMK A01 T01520012  RH  039%=      5-min Rain = 0
KQU1 161703Z 20009KT 15/02 A3008 RMK A01 T01520015  RH  039%=      5-min Rain = 0
KQU1 161704Z 19011KT 16/02 A3008 RMK A01 T01560016  RH  039%=      5-min Rain = 0
KQU1 161705Z 17009KT 16/02 A3008 RMK A01 T01570015  RH  038%=      5-min Rain = 0
KQU1 161706Z 19011KT 16/01 A3008 RMK A01 T01570013  RH  037%=      5-min Rain = 0
KQU1 161707Z 19011KT 16/01 A3008 RMK A01 T01570012  RH  038%=      5-min Rain = 0
KQU1 161708Z 18012KT 16/01 A3008 RMK A01 T01560013  RH  038%=      5-min Rain = 0
KQU1 161709Z 17010KT 16/01 A3007 RMK A01 T01560013  RH  038%=      5-min Rain = 0
KQU1 161710Z 19010KT 16/01 A3007 RMK A01 T01560014  RH  038%=      5-min Rain = 0
KQU1 161711Z 19011KT 16/01 A3007 RMK A01 T01560013  RH  038%=      5-min Rain = 0
KQU1 161712Z 18012KT 16/01 A3007 RMK A01 T01560012  RH  038%=      5-min Rain = 0
KQU1 161713Z 18010KT 16/01 A3007 RMK A01 T01570014  RH  038%=      5-min Rain = 0
KQU1 161714Z 19012KT 16/01 A3007 RMK A01 T01570013  RH  038%=      5-min Rain = 0
KQU1 161715Z 20012KT 16/01 A3007 RMK A01 T01570011  RH  037%=      5-min Rain = 0
KQU1 161716Z 20010KT 16/01 A3007 RMK A01 T01570011  RH  037%=      5-min Rain = 0
KQU1 161717Z 20012KT 16/01 A3007 RMK A01 T01580013  RH  037%=      5-min Rain = 0
KQU1 161718Z 20013KT 16/01 A3007 RMK A01 T01580010  RH  037%=      5-min Rain = 0
KQU1 161719Z 20013KT 16/01 A3007 RMK A01 T01580011  RH  037%=      5-min Rain = 0
KQU1 161720Z 19014KT 16/01 A3007 RMK A01 T01580012  RH  037%=      5-min Rain = 0
KQU1 161721Z 19012KT 16/01 A3007 RMK A01 T01580012  RH  037%=      5-min Rain = 0
KQU1 161722Z 19012KT 16/01 A3007 RMK A01 T01580012  RH  037%=      5-min Rain = 0
KQU1 161723Z 19012KT 16/01 A3007 RMK A01 T01580012  RH  037%=      5-min Rain = 0
KQU1 161724Z 19010KT 16/01 A3007 RMK A01 T01580013  RH  037%=      5-min Rain = 0
KQU1 161725Z 21013KT 16/01 A3006 RMK A01 T01590013  RH  037%=      5-min Rain = 0
KQU1 161726Z 20012KT 16/01 A3006 RMK A01 T01590012  RH  037%=      5-min Rain = 0
KQU1 161727Z 18012KT 16/01 A3006 RMK A01 T01600014  RH  037%=      5-min Rain = 0
KQU1 161728Z 19012KT 16/01 A3006 RMK A01 T01620014  RH  037%=      5-min Rain = 0
KQU1 161729Z 18012KT 16/02 A3006 RMK A01 T01640015  RH  036%=      5-min Rain = 0
KQU1 161730Z 17013KT 17/01 A3006 RMK A01 T01660013  RH  036%=      5-min Rain = 0
KQU1 161731Z 20013KT 17/01 A3006 RMK A01 T01660013  RH  036%=      5-min Rain = 0
KQU1 161732Z 19012KT 17/01 A3006 RMK A01 T01670014  RH  036%=      5-min Rain = 0
KQU1 161733Z 19012KT 17/01 A3006 RMK A01 T01660013  RH  035%=      5-min Rain = 0
KQU1 161734Z 19013G18KT 17/01 A3006 RMK A01 T01660014  RH  036%=      5-min Rain = 0
KQU1 161735Z 20013KT 17/01 A3006 RMK A01 T01660011  RH  035%=      5-min Rain = 0
KQU1 161736Z 18013KT 16/01 A3006 RMK A01 T01640012  RH  036%=      5-min Rain = 0
KQU1 161737Z 18014KT 16/01 A3006 RMK A01 T01630011  RH  036%=      5-min Rain = 0
KQU1 161738Z 19015KT 16/01 A3006 RMK A01 T01620011  RH  036%=      5-min Rain = 0
KQU1 161739Z 18011KT 16/01 A3006 RMK A01 T01600012  RH  037%=      5-min Rain = 0
KQU1 161740Z 20013KT 16/01 A3006 RMK A01 T01600014  RH  037%=      5-min Rain = 0
KQU1 161741Z 20015KT 16/01 A3005 RMK A01 T01620014  RH  037%=      5-min Rain = 0
KQU1 161742Z 20016KT 17/01 A3005 RMK A01 T01650013  RH  036%=      5-min Rain = 0
KQU1 161743Z 20017KT 17/01 A3005 RMK A01 T01660012  RH  035%=      5-min Rain = 0
KQU1 161744Z 19014KT 17/01 A3006 RMK A01 T01670014  RH  035%=      5-min Rain = 0
KQU1 161745Z 20014KT 17/01 A3005 RMK A01 T01690013  RH  035%=      5-min Rain = 0
KQU1 161746Z 19017KT 17/01 A3005 RMK A01 T01690012  RH  034%=      5-min Rain = 0
KQU1 161747Z 20018KT 17/01 A3005 RMK A01 T01690011  RH  034%=      5-min Rain = 0
KQU1 161748Z 20017KT 17/01 A3005 RMK A01 T01680011  RH  035%=      5-min Rain = 0
KQU1 161749Z 18016KT 17/01 A3005 RMK A01 T01680012  RH  035%=      5-min Rain = 0
KQU1 161750Z 18016KT 17/01 A3005 RMK A01 T01690012  RH  035%=      5-min Rain = 0
KQU1 161751Z 18016KT 17/01 A3005 RMK A01 T01700013  RH  035%=      5-min Rain = 0
KQU1 161752Z 18015KT 17/01 A3005 RMK A01 T01700011  RH  034%=      5-min Rain = 0
KQU1 161753Z 20017KT 17/01 A3005 RMK A01 T01710010  RH  034%=      5-min Rain = 0
KQU1 161754Z 19017KT 17/01 A3005 RMK A01 T01720011  RH  034%=      5-min Rain = 0
KQU1 161755Z 19019KT 17/01 A3005 RMK A01 T01720010  RH  033%=      5-min Rain = 0
KQU1 161756Z 20016KT 17/01 A3005 RMK A01 T01710010  RH  034%=      5-min Rain = 0
KQU1 161757Z 18018KT 17/01 A3005 RMK A01 T01710010  RH  034%=      5-min Rain = 0
KQU1 161758Z 19018KT 17/01 A3005 RMK A01 T01710011  RH  034%=      5-min Rain = 0
KQU1 161759Z 20017KT 17/01 A3005 RMK A01 T01710011  RH  034%=      5-min Rain = 0
KQU1 161800Z 20017KT 17/01 A3005 RMK A01 T01710012  RH  034%=      5-min Rain = 0
KQU1 161801Z 20017KT 17/01 A3005 RMK A01 T01710012  RH  034%=      5-min Rain = 0
KQU1 161802Z 19015KT 17/01 A3005 RMK A01 T01720011  RH  034%=      5-min Rain = 0
KQU1 161803Z 18010KT 17/01 A3004 RMK A01 T01710012  RH  034%=      5-min Rain = 0
KQU1 161804Z 18010G15KT 17/01 A3004 RMK A01 T01730014  RH  034%=      5-min Rain = 0
KQU1 161805Z 18016KT 17/01 A3004 RMK A01 T01740012  RH  034%=      5-min Rain = 0
KQU1 161806Z 19015KT 17/01 A3004 RMK A01 T01740012  RH  034%=      5-min Rain = 0
KQU1 161807Z 19015KT 17/01 A3004 RMK A01 T01740012  RH  034%=      5-min Rain = 0
KQU1 161808Z 20014KT 17/01 A3004 RMK A01 T01730011  RH  034%=      5-min Rain = 0
KQU1 161809Z 18014KT 17/01 A3004 RMK A01 T01730013  RH  034%=      5-min Rain = 0
KQU1 161810Z 18014KT 17/01 A3004 RMK A01 T01740013  RH  034%=      5-min Rain = 0
KQU1 161811Z 18016KT 18/01 A3004 RMK A01 T01760013  RH  033%=      5-min Rain = 0
KQU1 161812Z 19016KT 18/01 A3003 RMK A01 T01770012  RH  033%=      5-min Rain = 0
KQU1 161813Z 19014KT 18/01 A3003 RMK A01 T01770012  RH  033%=      5-min Rain = 0
KQU1 161814Z 18013KT 18/01 A3003 RMK A01 T01770013  RH  033%=      5-min Rain = 0
KQU1 161815Z 18015KT 18/01 A3003 RMK A01 T01780013  RH  033%=      5-min Rain = 0
KQU1 161816Z 18015KT 18/01 A3003 RMK A01 T01790014  RH  033%=      5-min Rain = 0
KQU1 161817Z 21017KT 18/01 A3003 RMK A01 T01810009  RH  031%=      5-min Rain = 0
KQU1 161818Z 20017KT 18/01 A3003 RMK A01 T01800008  RH  031%=      5-min Rain = 0
KQU1 161819Z 20014KT 18/01 A3003 RMK A01 T01800008  RH  031%=      5-min Rain = 0
KQU1 161820Z 21017KT 18/01 A3003 RMK A01 T01800007  RH  031%=      5-min Rain = 0
KQU1 161821Z 20016KT 18/01 A3003 RMK A01 T01810008  RH  031%=      5-min Rain = 0
KQU1 161822Z 20015KT 18/01 A3003 RMK A01 T01820009  RH  031%=      5-min Rain = 0
KQU1 161823Z 20015KT 18/01 A3002 RMK A01 T01820005  RH  030%=      5-min Rain = 0
KQU1 161824Z 21016KT 18/01 A3002 RMK A01 T01800007  RH  031%=      5-min Rain = 0
KQU1 161825Z 19015KT 18/01 A3002 RMK A01 T01810011  RH  032%=      5-min Rain = 0
KQU1 161826Z 18014KT 18/01 A3002 RMK A01 T01800011  RH  032%=      5-min Rain = 0
KQU1 161827Z 18014KT 18/01 A3002 RMK A01 T01790011  RH  032%=      5-min Rain = 0
KQU1 161828Z 18015KT 18/01 A3002 RMK A01 T01800011  RH  032%=      5-min Rain = 0
KQU1 161829Z 18013KT 18/01 A3002 RMK A01 T01800011  RH  032%=      5-min Rain = 0
KQU1 161830Z 18014KT 18/01 A3002 RMK A01 T01800010  RH  032%=      5-min Rain = 0
KQU1 161831Z 18013KT 18/01 A3002 RMK A01 T01800010  RH  032%=      5-min Rain = 0
KQU1 161832Z 19012KT 18/01 A3002 RMK A01 T01820012  RH  032%=      5-min Rain = 0
KQU1 161833Z 19014KT 18/01 A3002 RMK A01 T01830009  RH  031%=      5-min Rain = 0
KQU1 161834Z 19012KT 18/01 A3002 RMK A01 T01810009  RH  031%=      5-min Rain = 0
KQU1 161835Z 18012KT 18/01 A3002 RMK A01 T01800009  RH  032%=      5-min Rain = 0
KQU1 161836Z 18016KT 18/01 A3002 RMK A01 T01800009  RH  032%=      5-min Rain = 0
KQU1 161837Z 19015KT 18/01 A3002 RMK A01 T01810008  RH  031%=      5-min Rain = 0
KQU1 161838Z 18015KT 18/01 A3002 RMK A01 T01810008  RH  031%=      5-min Rain = 0
KQU1 161839Z 18018KT 18/01 A3001 RMK A01 T01820006  RH  031%=      5-min Rain = 0
KQU1 161840Z 18016KT 18/01 A3002 RMK A01 T01810006  RH  031%=      5-min Rain = 0
KQU1 161841Z 18014KT 18/01 A3002 RMK A01 T01810008  RH  031%=      5-min Rain = 0
KQU1 161842Z 20013KT 18/01 A3001 RMK A01 T01820008  RH  031%=      5-min Rain = 0
KQU1 161843Z 21015KT 18/01 A3001 RMK A01 T01820005  RH  030%=      5-min Rain = 0
KQU1 161844Z 19014KT 18/01 A3001 RMK A01 T01830008  RH  031%=      5-min Rain = 0
KQU1 161845Z 19015KT 18/01 A3001 RMK A01 T01830008  RH  031%=      5-min Rain = 0
KQU1 161846Z 19013KT 18/01 A3001 RMK A01 T01830008  RH  031%=      5-min Rain = 0
KQU1 161847Z 19012KT 18/01 A3001 RMK A01 T01830007  RH  031%=      5-min Rain = 0
KQU1 161848Z 19013KT 18/01 A3001 RMK A01 T01830008  RH  031%=      5-min Rain = 0
KQU1 161849Z 18016KT 18/01 A3001 RMK A01 T01830007  RH  030%=      5-min Rain = 0
KQU1 161850Z 19015KT 18/01 A3001 RMK A01 T01820007  RH  031%=      5-min Rain = 0
KQU1 161851Z 19016KT 18/01 A3001 RMK A01 T01820007  RH  031%=      5-min Rain = 0
KQU1 161852Z 19015KT 18/01 A3001 RMK A01 T01810007  RH  031%=      5-min Rain = 0
KQU1 161853Z 19012KT 18/01 A3001 RMK A01 T01810007  RH  031%=      5-min Rain = 0
KQU1 161854Z 18014KT 18/01 A3001 RMK A01 T01810008  RH  031%=      5-min Rain = 0
KQU1 161855Z 19015KT 18/01 A3001 RMK A01 T01820007  RH  031%=      5-min Rain = 0
KQU1 161856Z 18016KT 18/01 A3001 RMK A01 T01820005  RH  030%=      5-min Rain = 0
KQU1 161857Z 18015KT 18/01 A3001 RMK A01 T01810005  RH  030%=      5-min Rain = 0
KQU1 161858Z 18013KT 18/01 A30 RMK A01 T01820006  RH  030%=      5-min Rain = 0
KQU1 161859Z 19017KT 18/01 A30 RMK A01 T01830007  RH  031%=      5-min Rain = 0
KQU1 161900Z 19015KT 18/01 A30 RMK A01 T01820007  RH  031%=      5-min Rain = 0
KQU1 161901Z 19014KT 18/01 A30 RMK A01 T01830008  RH  031%=      5-min Rain = 0
KQU1 161902Z 18011KT 18/01 A30 RMK A01 T01840010  RH  031%=      5-min Rain = 0
KQU1 161903Z 19012KT 19/01 A30 RMK A01 T01860009  RH  031%=      5-min Rain = 0
KQU1 161904Z 18013KT 19/01 A30 RMK A01 T01850009  RH  031%=      5-min Rain = 0
KQU1 161905Z 18013KT 19/01 A30 RMK A01 T01860011  RH  031%=      5-min Rain = 0
KQU1 161906Z 18014KT 19/01 A30 RMK A01 T01860009  RH  030%=      5-min Rain = 0
KQU1 161907Z 18017KT 19/01 A30 RMK A01 T01850009  RH  031%=      5-min Rain = 0
KQU1 161908Z 18015KT 19/01 A30 RMK A01 T01850009  RH  031%=      5-min Rain = 0
KQU1 161909Z 18014KT 19/01 A30 RMK A01 T01850009  RH  031%=      5-min Rain = 0
KQU1 161910Z 18016KT 19/01 A30 RMK A01 T01860009  RH  030%=      5-min Rain = 0
KQU1 161911Z 19013KT 19/01 A30 RMK A01 T01870009  RH  030%=      5-min Rain = 0
KQU1 161912Z 18015KT 19/01 A30 RMK A01 T01870008  RH  030%=      5-min Rain = 0
KQU1 161913Z 18017KT 19/01 A30 RMK A01 T01880007  RH  030%=      5-min Rain = 0
KQU1 161914Z 19013KT 19/01 A2999 RMK A01 T01870008  RH  030%=      5-min Rain = 0
KQU1 161915Z 18016KT 19/01 A2999 RMK A01 T01880007  RH  030%=      5-min Rain = 0
KQU1 161916Z 18016KT 19/01 A2999 RMK A01 T01870005  RH  029%=      5-min Rain = 0
KQU1 161917Z 18014KT 19/01 A2999 RMK A01 T01870007  RH  030%=      5-min Rain = 0
KQU1 161918Z 18017KT 19/01 A2999 RMK A01 T01870006  RH  029%=      5-min Rain = 0
KQU1 161919Z 19015KT 19/01 A2999 RMK A01 T01870007  RH  030%=      5-min Rain = 0
KQU1 161920Z 18017KT 19/01 A2999 RMK A01 T01860005  RH  030%=      5-min Rain = 0
KQU1 161921Z 19015KT 19/01 A2999 RMK A01 T01850005  RH  030%=      5-min Rain = 0
KQU1 161922Z 18014KT 18/01 A2999 RMK A01 T01840005  RH  030%=      5-min Rain = 0
KQU1 161923Z 20015KT 19/01 A2999 RMK A01 T01850007  RH  030%=      5-min Rain = 0
KQU1 161924Z 19015KT 19/01 A2999 RMK A01 T01860007  RH  030%=      5-min Rain = 0
KQU1 161925Z 18017KT 19/01 A2999 RMK A01 T01860005  RH  029%=      5-min Rain = 0
KQU1 161926Z 19014KT 19/01 A2999 RMK A01 T01860005  RH  030%=      5-min Rain = 0
KQU1 161927Z 19017KT 19/01 A2999 RMK A01 T01860005  RH  029%=      5-min Rain = 0
KQU1 161928Z 19019KT 19/00 A2999 RMK A01 T01860002  RH  029%=      5-min Rain = 0
KQU1 161929Z 18018KT 19/00 A2999 RMK A01 T01850003  RH  029%=      5-min Rain = 0
KQU1 161930Z 19017KT 19/00 A2999 RMK A01 T01850004  RH  030%=      5-min Rain = 0
KQU1 161931Z 18015KT 18/00 A2999 RMK A01 T01840004  RH  030%=      5-min Rain = 0
KQU1 161932Z 18015KT 18/00 A2999 RMK A01 T01840003  RH  030%=      5-min Rain = 0
KQU1 161933Z 18016KT 19/00 A2999 RMK A01 T01850004  RH  030%=      5-min Rain = 0
KQU1 161934Z 18014KT 19/01 A2998 RMK A01 T01850006  RH  030%=      5-min Rain = 0
KQU1 161935Z 19014KT 19/01 A2998 RMK A01 T01850006  RH  030%=      5-min Rain = 0
KQU1 161936Z 19015KT 19/01 A2998 RMK A01 T01850005  RH  030%=      5-min Rain = 0
KQU1 161937Z 18017KT 19/00 A2998 RMK A01 T01850004  RH  030%=      5-min Rain = 0
KQU1 161938Z 18014KT 18/00 A2998 RMK A01 T01840004  RH  030%=      5-min Rain = 0
KQU1 161939Z 19013G18KT 19/01 A2998 RMK A01 T01850006  RH  030%=      5-min Rain = 0
KQU1 161940Z 19017KT 19/01 A2998 RMK A01 T01860005  RH  030%=      5-min Rain = 0
KQU1 161941Z 18016KT 19/01 A2998 RMK A01 T01850006  RH  030%=      5-min Rain = 0
KQU1 161942Z 18014KT 19/01 A2998 RMK A01 T01850006  RH  030%=      5-min Rain = 0
KQU1 161943Z 19013KT 18/01 A2998 RMK A01 T01840006  RH  030%=      5-min Rain = 0
KQU1 161944Z 19015KT 19/01 A2998 RMK A01 T01850007  RH  030%=      5-min Rain = 0
KQU1 161945Z 19015KT 18/01 A2998 RMK A01 T01840005  RH  030%=      5-min Rain = 0
KQU1 161946Z 17017KT 18/01 A2998 RMK A01 T01840006  RH  030%=      5-min Rain = 0
KQU1 161947Z 18018KT 18/01 A2998 RMK A01 T01840006  RH  030%=      5-min Rain = 0
KQU1 161948Z 19016KT 18/01 A2998 RMK A01 T01830006  RH  030%=      5-min Rain = 0
KQU1 161949Z 18016KT 18/01 A2998 RMK A01 T01820006  RH  030%=      5-min Rain = 0
KQU1 161950Z 19014KT 18/01 A2997 RMK A01 T01820007  RH  031%=      5-min Rain = 0
KQU1 161951Z 19013KT 18/01 A2997 RMK A01 T01820007  RH  031%=      5-min Rain = 0
KQU1 161952Z 18015KT 18/01 A2997 RMK A01 T01830007  RH  031%=      5-min Rain = 0
KQU1 161953Z 18017KT 18/01 A2997 RMK A01 T01830007  RH  031%=      5-min Rain = 0
KQU1 161954Z 19015KT 18/01 A2997 RMK A01 T01820007  RH  031%=      5-min Rain = 0
KQU1 161955Z 18017KT 18/01 A2997 RMK A01 T01820008  RH  031%=      5-min Rain = 0
KQU1 161956Z 18016KT 18/01 A2997 RMK A01 T01820007  RH  031%=      5-min Rain = 0
KQU1 161957Z 18016KT 18/01 A2997 RMK A01 T01820007  RH  031%=      5-min Rain = 0
KQU1 161958Z 19016KT 18/01 A2997 RMK A01 T01820007  RH  031%=      5-min Rain = 0
KQU1 161959Z 18015KT 18/01 A2997 RMK A01 T01810006  RH  031%=      5-min Rain = 0
KQU1 162000Z 19014KT 18/01 A2997 RMK A01 T01810006  RH  031%=      5-min Rain = 0
KQU1 162001Z 19015KT 18/01 A2997 RMK A01 T01810006  RH  031%=      5-min Rain = 0
KQU1 162002Z 18018KT 18/01 A2997 RMK A01 T01800006  RH  031%=      5-min Rain = 0
KQU1 162003Z 18015KT 18/01 A2997 RMK A01 T01800006  RH  031%=      5-min Rain = 0
KQU1 162004Z 17013KT 18/01 A2997 RMK A01 T01810007  RH  031%=      5-min Rain = 0
KQU1 162005Z 18014KT 18/01 A2997 RMK A01 T01810007  RH  031%=      5-min Rain = 0
KQU1 162006Z 19015KT 18/01 A2997 RMK A01 T01810006  RH  031%=      5-min Rain = 0
KQU1 162007Z 19015KT 18/01 A2997 RMK A01 T01810007  RH  031%=      5-min Rain = 0
KQU1 162008Z 19017KT 18/01 A2997 RMK A01 T01810005  RH  031%=      5-min Rain = 0
KQU1 162009Z 18017KT 18/00 A2997 RMK A01 T01800004  RH  030%=      5-min Rain = 0
KQU1 162010Z 19016KT 18/00 A2997 RMK A01 T01800004  RH  031%=      5-min Rain = 0
KQU1 162011Z 19018KT 18/00 A2997 RMK A01 T01790003  RH  030%=      5-min Rain = 0
KQU1 162012Z 19016KT 18/00 A2997 RMK A01 T01780004  RH  031%=      5-min Rain = 0
KQU1 162013Z 18015KT 18/01 A2997 RMK A01 T01780006  RH  031%=      5-min Rain = 0
KQU1 162014Z 19015KT 18/01 A2997 RMK A01 T01780005  RH  031%=      5-min Rain = 0
KQU1 162015Z 20016KT 18/01 A2997 RMK A01 T01780005  RH  031%=      5-min Rain = 0
KQU1 162016Z 19015KT 18/01 A2997 RMK A01 T01780005  RH  031%=      5-min Rain = 0
KQU1 162017Z 19014KT 18/01 A2997 RMK A01 T01770007  RH  032%=      5-min Rain = 0
KQU1 162018Z 19017KT 18/01 A2997 RMK A01 T01770007  RH  032%=      5-min Rain = 0
KQU1 162019Z 18017KT 18/01 A2997 RMK A01 T01760007  RH  032%=      5-min Rain = 0
KQU1 162020Z 18015KT 18/01 A2997 RMK A01 T01750009  RH  033%=      5-min Rain = 0
KQU1 162021Z 18016KT 18/01 A2997 RMK A01 T01760010  RH  033%=      5-min Rain = 0
KQU1 162022Z 18017KT 18/01 A2996 RMK A01 T01760009  RH  032%=      5-min Rain = 0
KQU1 162023Z 18018KT 18/01 A2996 RMK A01 T01760008  RH  032%=      5-min Rain = 0
KQU1 162024Z 18018KT 18/01 A2996 RMK A01 T01750007  RH  032%=      5-min Rain = 0
KQU1 162025Z 18018KT 18/01 A2997 RMK A01 T01750007  RH  032%=      5-min Rain = 0
KQU1 162026Z 18019KT 18/01 A2996 RMK A01 T01750007  RH  032%=      5-min Rain = 0
KQU1 162027Z 18018KT 17/01 A2996 RMK A01 T01740007  RH  032%=      5-min Rain = 0
KQU1 162028Z 18016KT 17/01 A2996 RMK A01 T01740007  RH  032%=      5-min Rain = 0
KQU1 162029Z 19016KT 17/01 A2996 RMK A01 T01740009  RH  033%=      5-min Rain = 0
KQU1 162030Z 19016KT 18/01 A2996 RMK A01 T01750010  RH  033%=      5-min Rain = 0
KQU1 162031Z 19016KT 18/01 A2996 RMK A01 T01750010  RH  033%=      5-min Rain = 0
KQU1 162032Z 19017KT 18/01 A2996 RMK A01 T01750008  RH  032%=      5-min Rain = 0
KQU1 162033Z 19016KT 18/01 A2996 RMK A01 T01750009  RH  033%=      5-min Rain = 0
KQU1 162034Z 19018KT 18/01 A2996 RMK A01 T01760009  RH  032%=      5-min Rain = 0
KQU1 162035Z 18016KT 18/01 A2996 RMK A01 T01770009  RH  032%=      5-min Rain = 0
KQU1 162036Z 19016KT 18/01 A2996 RMK A01 T01780010  RH  032%=      5-min Rain = 0
KQU1 162037Z 18016KT 18/01 A2996 RMK A01 T01780010  RH  032%=      5-min Rain = 0
KQU1 162038Z 18016KT 18/01 A2996 RMK A01 T01780009  RH  032%=      5-min Rain = 0
KQU1 162039Z 18018KT 18/01 A2996 RMK A01 T01780009  RH  032%=      5-min Rain = 0
KQU1 162040Z 19017KT 18/01 A2996 RMK A01 T01780009  RH  032%=      5-min Rain = 0
KQU1 162041Z 19017KT 18/01 A2996 RMK A01 T01780010  RH  032%=      5-min Rain = 0
KQU1 162042Z 19017KT 18/01 A2996 RMK A01 T01780010  RH  032%=      5-min Rain = 0
KQU1 162043Z 18017KT 18/01 A2996 RMK A01 T01780010  RH  032%=      5-min Rain = 0
KQU1 162044Z 19018KT 18/01 A2996 RMK A01 T01780011  RH  033%=      5-min Rain = 0
KQU1 162045Z 19018KT 18/01 A2996 RMK A01 T01770010  RH  032%=      5-min Rain = 0
KQU1 162046Z 20019KT 18/01 A2996 RMK A01 T01770009  RH  032%=      5-min Rain = 0
KQU1 162047Z 19020KT 18/01 A2996 RMK A01 T01770009  RH  032%=      5-min Rain = 0
KQU1 162048Z 19017KT 18/01 A2996 RMK A01 T01770010  RH  032%=      5-min Rain = 0
KQU1 162049Z 18017KT 18/01 A2996 RMK A01 T01780011  RH  033%=      5-min Rain = 0
KQU1 162050Z 19016G21KT 18/01 A2996 RMK A01 T01780011  RH  032%=      5-min Rain = 0
KQU1 162051Z 19015KT 18/01 A2995 RMK A01 T01780013  RH  033%=      5-min Rain = 0
KQU1 162052Z 19018KT 18/01 A2995 RMK A01 T01790012  RH  032%=      5-min Rain = 0
KQU1 162053Z 18018KT 18/01 A2995 RMK A01 T01790011  RH  032%=      5-min Rain = 0
KQU1 162054Z 19016KT 18/01 A2995 RMK A01 T01800012  RH  032%=      5-min Rain = 0
KQU1 162055Z 19018KT 18/01 A2995 RMK A01 T01800011  RH  032%=      5-min Rain = 0
KQU1 162056Z 18015KT 18/01 A2995 RMK A01 T01800012  RH  032%=      5-min Rain = 0
KQU1 162057Z 18017KT 18/01 A2995 RMK A01 T01810011  RH  032%=      5-min Rain = 0
KQU1 162058Z 18018KT 18/01 A2995 RMK A01 T01810010  RH  032%=      5-min Rain = 0
KQU1 162059Z 17016KT 18/01 A2995 RMK A01 T01810010  RH  032%=      5-min Rain = 0
KQU1 162100Z 18016KT 18/01 A2995 RMK A01 T01820010  RH  032%=      5-min Rain = 0
KQU1 162101Z 18017KT 18/01 A2995 RMK A01 T01820010  RH  031%=      5-min Rain = 0
KQU1 162102Z 18018KT 18/01 A2995 RMK A01 T01820007  RH  031%=      5-min Rain = 0
KQU1 162103Z 17016KT 18/01 A2995 RMK A01 T01820008  RH  031%=      5-min Rain = 0
KQU1 162104Z 17018KT 18/01 A2995 RMK A01 T01830009  RH  031%=      5-min Rain = 0
KQU1 162105Z 18018KT 18/01 A2995 RMK A01 T01830008  RH  031%=      5-min Rain = 0
KQU1 162106Z 18019KT 18/01 A2995 RMK A01 T01820007  RH  031%=      5-min Rain = 0
KQU1 162107Z 18017KT 18/01 A2995 RMK A01 T01820007  RH  031%=      5-min Rain = 0
KQU1 162108Z 18018KT 18/01 A2995 RMK A01 T01820007  RH  031%=      5-min Rain = 0
KQU1 162109Z 19017KT 18/01 A2995 RMK A01 T01820007  RH  031%=      5-min Rain = 0
KQU1 162110Z 19019KT 18/01 A2995 RMK A01 T01820007  RH  031%=      5-min Rain = 0
KQU1 162111Z 19017KT 18/01 A2995 RMK A01 T01820007  RH  031%=      5-min Rain = 0
KQU1 162112Z 19016KT 18/01 A2995 RMK A01 T01820008  RH  031%=      5-min Rain = 0
KQU1 162113Z 19016KT 18/01 A2995 RMK A01 T01820008  RH  031%=      5-min Rain = 0
KQU1 162114Z 19017KT 18/01 A2995 RMK A01 T01830008  RH  031%=      5-min Rain = 0
KQU1 162115Z 19016KT 18/01 A2995 RMK A01 T01830009  RH  031%=      5-min Rain = 0
KQU1 162116Z 18015KT 18/01 A2995 RMK A01 T01840009  RH  031%=      5-min Rain = 0
KQU1 162117Z 18017KT 19/01 A2995 RMK A01 T01850009  RH  031%=      5-min Rain = 0
KQU1 162118Z 18017KT 19/01 A2995 RMK A01 T01860009  RH  030%=      5-min Rain = 0
KQU1 162119Z 18015KT 19/01 A2995 RMK A01 T01860010  RH  031%=      5-min Rain = 0
KQU1 162120Z 18017KT 19/01 A2995 RMK A01 T01870009  RH  030%=      5-min Rain = 0
KQU1 162121Z 18015KT 19/01 A2995 RMK A01 T01880009  RH  030%=      5-min Rain = 0
KQU1 162122Z 18017KT 19/01 A2995 RMK A01 T01890009  RH  030%=      5-min Rain = 0
KQU1 162123Z 18018G23KT 19/01 A2995 RMK A01 T01890008  RH  030%=      5-min Rain = 0
KQU1 162124Z 18016G21KT 19/01 A2995 RMK A01 T01900007  RH  029%=      5-min Rain = 0
KQU1 162125Z 18018KT 19/01 A2995 RMK A01 T01910007  RH  029%=      5-min Rain = 0
KQU1 162126Z 18016KT 19/01 A2995 RMK A01 T01920007  RH  029%=      5-min Rain = 0
KQU1 162127Z 18017KT 19/01 A2995 RMK A01 T01930008  RH  029%=      5-min Rain = 0
KQU1 162128Z 17016KT 19/01 A2995 RMK A01 T01940007  RH  029%=      5-min Rain = 0
KQU1 162129Z 17015KT 20/01 A2995 RMK A01 T01950009  RH  029%=      5-min Rain = 0
KQU1 162130Z 18016KT 20/01 A2994 RMK A01 T01970009  RH  028%=      5-min Rain = 0
KQU1 162131Z 18017KT 20/01 A2994 RMK A01 T01980009  RH  028%=      5-min Rain = 0
KQU1 162132Z 18015KT 20/01 A2994 RMK A01 T01990009  RH  028%=      5-min Rain = 0
KQU1 162133Z 18016KT 20/01 A2994 RMK A01 T01990009  RH  028%=      5-min Rain = 0
KQU1 162134Z 19017KT 20/01 A2994 RMK A01 T01990008  RH  028%=      5-min Rain = 0
KQU1 162135Z 17014KT 20/01 A2994 RMK A01 T01990010  RH  028%=      5-min Rain = 0
KQU1 162136Z 17016KT 20/01 A2995 RMK A01 T02010008  RH  027%=      5-min Rain = 0
KQU1 162137Z 18020KT 20/01 A2995 RMK A01 T02010005  RH  027%=      5-min Rain = 0
KQU1 162138Z 19019KT 20/01 A2995 RMK A01 T02000007  RH  027%=      5-min Rain = 0
KQU1 162139Z 19017KT 20/01 A2994 RMK A01 T01990007  RH  028%=      5-min Rain = 0
KQU1 162140Z 19017KT 20/01 A2994 RMK A01 T01980007  RH  028%=      5-min Rain = 0
KQU1 162141Z 18018KT 20/01 A2994 RMK A01 T01980007  RH  028%=      5-min Rain = 0
KQU1 162142Z 18018KT 20/01 A2994 RMK A01 T01980006  RH  028%=      5-min Rain = 0
KQU1 162143Z 18017KT 20/01 A2994 RMK A01 T01980005  RH  028%=      5-min Rain = 0
KQU1 162144Z 18018KT 20/01 A2994 RMK A01 T01970006  RH  028%=      5-min Rain = 0
KQU1 162145Z 18017KT 20/00 A2994 RMK A01 T01970003  RH  027%=      5-min Rain = 0
KQU1 162146Z 18019KT 20/00 A2994 RMK A01 T01970002  RH  027%=      5-min Rain = 0
KQU1 162147Z 17021KT 20/00 A2994 RMK A01 T019700-0  RH  026%=      5-min Rain = 0
KQU1 162148Z 18022KT 20/M00 A2994 RMK A01 T01971001  RH  026%=      5-min Rain = 0
KQU1 162149Z 18020KT 20/00 A2994 RMK A01 T01970001  RH  027%=      5-min Rain = 0
KQU1 162150Z 19018KT 20/00 A2994 RMK A01 T01980001  RH  027%=      5-min Rain = 0
KQU1 162151Z 19017KT 20/00 A2994 RMK A01 T01980002  RH  027%=      5-min Rain = 0
KQU1 162152Z 19019KT 20/00 A2994 RMK A01 T01990001  RH  027%=      5-min Rain = 0
KQU1 162153Z 18020KT 20/00 A2994 RMK A01 T01990000  RH  026%=      5-min Rain = 0
KQU1 162154Z 19020KT 20/00 A2994 RMK A01 T019700-0  RH  027%=      5-min Rain = 0
KQU1 162155Z 18020KT 20/00 A2994 RMK A01 T01970001  RH  027%=      5-min Rain = 0
KQU1 162156Z 19020KT 20/00 A2994 RMK A01 T01970001  RH  027%=      5-min Rain = 0
KQU1 162157Z 19018KT 20/00 A2994 RMK A01 T01960000  RH  027%=      5-min Rain = 0
KQU1 162158Z 19017G22KT 20/00 A2994 RMK A01 T01960002  RH  027%=      5-min Rain = 0
KQU1 162159Z 19018KT 20/00 A2994 RMK A01 T01960002  RH  027%=      5-min Rain = 0
KQU1 162200Z 19017KT 20/00 A2994 RMK A01 T01960003  RH  027%=      5-min Rain = 0
KQU1 162201Z 19017KT 20/00 A2994 RMK A01 T01960004  RH  028%=      5-min Rain = 0
KQU1 162202Z 19016KT 20/00 A2994 RMK A01 T01960004  RH  028%=      5-min Rain = 0
KQU1 162203Z 18016KT 20/01 A2994 RMK A01 T01960006  RH  028%=      5-min Rain = 0
KQU1 162204Z 18016KT 20/01 A2994 RMK A01 T01960007  RH  028%=      5-min Rain = 0
KQU1 162205Z 18016KT 20/01 A2994 RMK A01 T01960008  RH  028%=      5-min Rain = 0
KQU1 162206Z 19016G21KT 20/01 A2994 RMK A01 T01970010  RH  029%=      5-min Rain = 0
KQU1 162207Z 19017KT 20/01 A2994 RMK A01 T01970011  RH  029%=      5-min Rain = 0
KQU1 162208Z 18018KT 20/01 A2994 RMK A01 T01960010  RH  029%=      5-min Rain = 0
KQU1 162209Z 18018KT 20/01 A2994 RMK A01 T01960012  RH  029%=      5-min Rain = 0
KQU1 162210Z 17020KT 20/01 A2994 RMK A01 T01950013  RH  030%=      5-min Rain = 0
KQU1 162211Z 17018G23KT 20/01 A2994 RMK A01 T01950014  RH  030%=      5-min Rain = 0
KQU1 162212Z 17017KT 19/01 A2994 RMK A01 T01940014  RH  030%=      5-min Rain = 0
KQU1 162213Z 17015G20KT 19/02 A2994 RMK A01 T01940015  RH  030%=      5-min Rain = 0
KQU1 162214Z 17017KT 19/02 A2994 RMK A01 T01940015  RH  030%=      5-min Rain = 0
KQU1 162215Z 16017G22KT 19/01 A2994 RMK A01 T01940014  RH  030%=      5-min Rain = 0
KQU1 162216Z 16016KT 19/01 A2994 RMK A01 T01930014  RH  030%=      5-min Rain = 0
KQU1 162217Z 17017KT 19/01 A2994 RMK A01 T01930014  RH  030%=      5-min Rain = 0
KQU1 162218Z 17018KT 19/01 A2994 RMK A01 T01930013  RH  030%=      5-min Rain = 0
KQU1 162219Z 18017G22KT 19/01 A2994 RMK A01 T01930014  RH  030%=      5-min Rain = 0
KQU1 162220Z 18017KT 19/01 A2994 RMK A01 T01920014  RH  030%=      5-min Rain = 0
KQU1 162221Z 18016KT 19/01 A2994 RMK A01 T01920014  RH  030%=      5-min Rain = 0
KQU1 162222Z 17019KT 19/01 A2994 RMK A01 T01920012  RH  030%=      5-min Rain = 0
KQU1 162223Z 18019KT 19/01 A2994 RMK A01 T01910011  RH  030%=      5-min Rain = 0
KQU1 162224Z 18017G22KT 19/01 A2994 RMK A01 T01900011  RH  030%=      5-min Rain = 0
KQU1 162225Z 18016G21KT 19/01 A2994 RMK A01 T01900010  RH  030%=      5-min Rain = 0
KQU1 162226Z 18017KT 19/01 A2994 RMK A01 T01880009  RH  030%=      5-min Rain = 0
KQU1 162227Z 18015KT 19/01 A2994 RMK A01 T01870009  RH  030%=      5-min Rain = 0
KQU1 162228Z 18018KT 19/01 A2994 RMK A01 T01860009  RH  031%=      5-min Rain = 0
KQU1 162229Z 18018KT 18/01 A2994 RMK A01 T01840009  RH  031%=      5-min Rain = 0
KQU1 162230Z 18017KT 18/01 A2994 RMK A01 T01830010  RH  031%=      5-min Rain = 0
KQU1 162231Z 18016KT 18/01 A2994 RMK A01 T01820010  RH  031%=      5-min Rain = 0
KQU1 162232Z 18015KT 18/01 A2994 RMK A01 T01810011  RH  032%=      5-min Rain = 0
KQU1 162233Z 18016KT 18/01 A2994 RMK A01 T01800012  RH  032%=      5-min Rain = 0
KQU1 162234Z 17014KT 18/01 A2994 RMK A01 T01800013  RH  032%=      5-min Rain = 0
KQU1 162235Z 17015KT 18/01 A2994 RMK A01 T01790013  RH  033%=      5-min Rain = 0
KQU1 162236Z 17015G20KT 18/01 A2994 RMK A01 T01790014  RH  033%=      5-min Rain = 0
KQU1 162237Z 17017KT 18/02 A2994 RMK A01 T01780015  RH  033%=      5-min Rain = 0
KQU1 162238Z 17017KT 18/02 A2994 RMK A01 T01780015  RH  033%=      5-min Rain = 0
KQU1 162239Z 17017KT 18/02 A2994 RMK A01 T01790016  RH  033%=      5-min Rain = 0
KQU1 162240Z 17017KT 18/02 A2994 RMK A01 T01800016  RH  033%=      5-min Rain = 0
KQU1 162241Z 17016KT 18/02 A2994 RMK A01 T01810016  RH  033%=      5-min Rain = 0
KQU1 162242Z 18016KT 18/02 A2994 RMK A01 T01810016  RH  033%=      5-min Rain = 0
KQU1 162243Z 18016KT 18/02 A2994 RMK A01 T01800016  RH  033%=      5-min Rain = 0
KQU1 162244Z 17016KT 18/02 A2994 RMK A01 T01790017  RH  034%=      5-min Rain = 0
KQU1 162245Z 17017KT 18/02 A2994 RMK A01 T01780017  RH  034%=      5-min Rain = 0
KQU1 162246Z 17017KT 18/02 A2994 RMK A01 T01780017  RH  034%=      5-min Rain = 0
KQU1 162247Z 17019KT 18/02 A2994 RMK A01 T01770017  RH  034%=      5-min Rain = 0
KQU1 162248Z 17017KT 18/02 A2994 RMK A01 T01770017  RH  034%=      5-min Rain = 0
KQU1 162249Z 17016KT 18/02 A2994 RMK A01 T01770017  RH  034%=      5-min Rain = 0
KQU1 162250Z 17017KT 18/02 A2994 RMK A01 T01760017  RH  034%=      5-min Rain = 0
KQU1 162251Z 17017KT 18/02 A2994 RMK A01 T01760018  RH  035%=      5-min Rain = 0
KQU1 162252Z 17015KT 18/02 A2994 RMK A01 T01750018  RH  035%=      5-min Rain = 0
KQU1 162253Z 17015KT 18/02 A2994 RMK A01 T01750018  RH  035%=      5-min Rain = 0
KQU1 162254Z 18013KT 18/02 A2994 RMK A01 T01750018  RH  035%=      5-min Rain = 0
KQU1 162255Z 17015KT 17/02 A2994 RMK A01 T01740018  RH  035%=      5-min Rain = 0
KQU1 162256Z 18014KT 17/02 A2994 RMK A01 T01730018  RH  035%=      5-min Rain = 0
KQU1 162257Z 17014KT 17/02 A2994 RMK A01 T01720019  RH  036%=      5-min Rain = 0
KQU1 162258Z 17015KT 17/02 A2994 RMK A01 T01710019  RH  036%=      5-min Rain = 0
KQU1 162259Z 17016KT 17/02 A2994 RMK A01 T01710019  RH  036%=      5-min Rain = 0
KQU1 162300Z 17015KT 17/02 A2994 RMK A01 T01700019  RH  036%=      5-min Rain = 0
KQU1 162301Z 17015KT 17/02 A2994 RMK A01 T01690020  RH  036%=      5-min Rain = 0
KQU1 162302Z 17016KT 17/02 A2994 RMK A01 T01690020  RH  037%=      5-min Rain = 0
KQU1 162303Z 17016KT 17/02 A2994 RMK A01 T01680020  RH  037%=      5-min Rain = 0
KQU1 162304Z 17015KT 17/02 A2994 RMK A01 T01680020  RH  037%=      5-min Rain = 0
KQU1 162305Z 17014KT 17/02 A2994 RMK A01 T01680020  RH  037%=      5-min Rain = 0
KQU1 162306Z 17014KT 17/02 A2994 RMK A01 T01680021  RH  037%=      5-min Rain = 0
KQU1 162307Z 17014KT 17/02 A2994 RMK A01 T01680020  RH  037%=      5-min Rain = 0
KQU1 162308Z 17014KT 17/02 A2994 RMK A01 T01680020  RH  037%=      5-min Rain = 0
KQU1 162309Z 17015KT 17/02 A2994 RMK A01 T01680021  RH  037%=      5-min Rain = 0
KQU1 162310Z 17016KT 17/02 A2994 RMK A01 T01680020  RH  037%=      5-min Rain = 0
KQU1 162311Z 17016KT 17/02 A2994 RMK A01 T01680020  RH  037%=      5-min Rain = 0
KQU1 162312Z 17016KT 17/02 A2994 RMK A01 T01680020  RH  037%=      5-min Rain = 0
KQU1 162313Z 17015KT 17/02 A2994 RMK A01 T01670020  RH  037%=      5-min Rain = 0
KQU1 162314Z 17016KT 17/02 A2994 RMK A01 T01670020  RH  037%=      5-min Rain = 0
KQU1 162315Z 17015KT 17/02 A2994 RMK A01 T01660020  RH  037%=      5-min Rain = 0
KQU1 162316Z 17015KT 17/02 A2994 RMK A01 T01650020  RH  038%=      5-min Rain = 0
KQU1 162317Z 17014KT 17/02 A2994 RMK A01 T01650020  RH  038%=      5-min Rain = 0
KQU1 162318Z 17014KT 16/02 A2994 RMK A01 T01640020  RH  038%=      5-min Rain = 0
KQU1 162319Z 17012KT 16/02 A2994 RMK A01 T01630020  RH  038%=      5-min Rain = 0
KQU1 162320Z 18012KT 16/02 A2994 RMK A01 T01620021  RH  038%=      5-min Rain = 0
KQU1 162321Z 17013KT 16/02 A2994 RMK A01 T01620021  RH  039%=      5-min Rain = 0
KQU1 162322Z 17013KT 16/02 A2994 RMK A01 T01610021  RH  039%=      5-min Rain = 0
KQU1 162323Z 18013KT 16/02 A2994 RMK A01 T01600022  RH  039%=      5-min Rain = 0
KQU1 162324Z 17014KT 16/02 A2994 RMK A01 T01600022  RH  039%=      5-min Rain = 0
KQU1 162325Z 17014KT 16/02 A2994 RMK A01 T01600022  RH  040%=      5-min Rain = 0
KQU1 162326Z 18014KT 16/02 A2994 RMK A01 T01590023  RH  040%=      5-min Rain = 0
KQU1 162327Z 18014KT 16/02 A2994 RMK A01 T01590023  RH  040%=      5-min Rain = 0
KQU1 162328Z 18013KT 16/02 A2994 RMK A01 T01590024  RH  040%=      5-min Rain = 0
KQU1 162329Z 18013KT 16/02 A2994 RMK A01 T01580024  RH  040%=      5-min Rain = 0
KQU1 162330Z 18012KT 16/02 A2994 RMK A01 T01580024  RH  040%=      5-min Rain = 0
KQU1 162331Z 18011KT 16/02 A2994 RMK A01 T01570024  RH  041%=      5-min Rain = 0
KQU1 162332Z 18012KT 16/02 A2995 RMK A01 T01560024  RH  041%=      5-min Rain = 0
KQU1 162333Z 18013KT 16/03 A2995 RMK A01 T01560025  RH  041%=      5-min Rain = 0
KQU1 162334Z 17011KT 16/03 A2995 RMK A01 T01560025  RH  041%=      5-min Rain = 0
KQU1 162335Z 17011KT 16/03 A2995 RMK A01 T01550025  RH  041%=      5-min Rain = 0
KQU1 162336Z 17011KT 15/03 A2995 RMK A01 T01540025  RH  042%=      5-min Rain = 0
KQU1 162337Z 17010KT 15/03 A2995 RMK A01 T01530025  RH  042%=      5-min Rain = 0
KQU1 162338Z 17010KT 15/03 A2995 RMK A01 T01520025  RH  042%=      5-min Rain = 0
KQU1 162339Z 17010KT 15/03 A2995 RMK A01 T01510025  RH  043%=      5-min Rain = 0
KQU1 162340Z 17010KT 15/03 A2995 RMK A01 T01500025  RH  043%=      5-min Rain = 0
KQU1 162341Z 18010KT 15/03 A2995 RMK A01 T01500025  RH  043%=      5-min Rain = 0
KQU1 162342Z 18010KT 15/03 A2995 RMK A01 T01490025  RH  043%=      5-min Rain = 0
KQU1 162343Z 17010KT 15/03 A2995 RMK A01 T01480025  RH  044%=      5-min Rain = 0
KQU1 162344Z 17010KT 15/03 A2995 RMK A01 T01470025  RH  044%=      5-min Rain = 0
KQU1 162345Z 17010KT 15/03 A2995 RMK A01 T01460025  RH  044%=      5-min Rain = 0
KQU1 162346Z 17010KT 15/03 A2995 RMK A01 T01460025  RH  044%=      5-min Rain = 0
KQU1 162347Z 17009KT 15/03 A2995 RMK A01 T01450025  RH  044%=      5-min Rain = 0
KQU1 162348Z 17010KT 14/03 A2995 RMK A01 T01440025  RH  045%=      5-min Rain = 0
KQU1 162349Z 17011KT 14/03 A2995 RMK A01 T01430026  RH  045%=      5-min Rain = 0
KQU1 162350Z 17010KT 14/03 A2995 RMK A01 T01430026  RH  045%=      5-min Rain = 0
KQU1 162351Z 17011KT 14/03 A2995 RMK A01 T01430026  RH  045%=      5-min Rain = 0
KQU1 162352Z 17011KT 14/03 A2995 RMK A01 T01420026  RH  045%=      5-min Rain = 0
KQU1 162353Z 17011KT 14/03 A2995 RMK A01 T01410026  RH  046%=      5-min Rain = 0
KQU1 162354Z 17011KT 14/03 A2995 RMK A01 T01410026  RH  046%=      5-min Rain = 0
KQU1 162355Z 17011KT 14/03 A2996 RMK A01 T01400026  RH  046%=      5-min Rain = 0
KQU1 162356Z 17012KT 14/03 A2996 RMK A01 T01390027  RH  047%=      5-min Rain = 0
KQU1 162357Z 17012G17KT 14/03 A2996 RMK A01 T01390027  RH  047%=      5-min Rain = 0
KQU1 162358Z 18013KT 14/03 A2996 RMK A01 T01400028  RH  047%=      5-min Rain = 0
KQU1 162359Z 18013KT 14/03 A2996 RMK A01 T01410028  RH  046%=      5-min Rain = 0
KQU1 170000Z 17011KT 14/03 A2996 RMK A01 T01410027  RH  046%=      5-min Rain = 0
KQU1 170001Z 17012KT 14/03 A2996 RMK A01 T01420028  RH  046%=      5-min Rain = 0
KQU1 170002Z 17012KT 14/03 A2996 RMK A01 T01420028  RH  046%=      5-min Rain = 0
KQU1 170003Z 17013KT 14/03 A2996 RMK A01 T01410027  RH  046%=      5-min Rain = 0
KQU1 170004Z 17012KT 14/03 A2996 RMK A01 T01410027  RH  046%=      5-min Rain = 0
KQU1 170005Z 17013KT 14/03 A2996 RMK A01 T01410027  RH  046%=      5-min Rain = 0
KQU1 170006Z 17013KT 14/03 A2996 RMK A01 T01400027  RH  046%=      5-min Rain = 0
KQU1 170007Z 17013KT 14/03 A2996 RMK A01 T01400027  RH  046%=      5-min Rain = 0
KQU1 170008Z 18013KT 14/03 A2996 RMK A01 T01400027  RH  046%=      5-min Rain = 0
KQU1 170009Z 18013KT 14/03 A2996 RMK A01 T01400026  RH  046%=      5-min Rain = 0
KQU1 170010Z 18012KT 14/03 A2996 RMK A01 T01400026  RH  046%=      5-min Rain = 0
KQU1 170011Z 18012KT 14/03 A2996 RMK A01 T01400026  RH  046%=      5-min Rain = 0
KQU1 170012Z 18011KT 14/03 A2996 RMK A01 T01400026  RH  046%=      5-min Rain = 0
KQU1 170013Z 18011KT 14/03 A2996 RMK A01 T01400025  RH  046%=      5-min Rain = 0
KQU1 170014Z 18011KT 14/03 A2996 RMK A01 T01390025  RH  046%=      5-min Rain = 0
KQU1 170015Z 18012KT 14/03 A2996 RMK A01 T01380025  RH  046%=      5-min Rain = 0
KQU1 170016Z 18011KT 14/03 A2996 RMK A01 T01380026  RH  046%=      5-min Rain = 0
KQU1 170017Z 18012KT 14/03 A2996 RMK A01 T01380025  RH  046%=      5-min Rain = 0
KQU1 170018Z 18011KT 14/03 A2996 RMK A01 T01380025  RH  046%=      5-min Rain = 0
KQU1 170019Z 18010KT 14/03 A2996 RMK A01 T01380025  RH  046%=      5-min Rain = 0
KQU1 170020Z 18010KT 14/03 A2997 RMK A01 T01370025  RH  047%=      5-min Rain = 0
KQU1 170021Z 18010KT 14/03 A2997 RMK A01 T01370025  RH  047%=      5-min Rain = 0
KQU1 170022Z 18010KT 14/03 A2997 RMK A01 T01370025  RH  047%=      5-min Rain = 0
KQU1 170023Z 18010KT 14/03 A2997 RMK A01 T01360025  RH  047%=      5-min Rain = 0
KQU1 170024Z 18010KT 14/03 A2997 RMK A01 T01360025  RH  047%=      5-min Rain = 0
KQU1 170025Z 18010KT 14/03 A2997 RMK A01 T01350025  RH  047%=      5-min Rain = 0
KQU1 170026Z 18010KT 14/03 A2997 RMK A01 T01350025  RH  047%=      5-min Rain = 0
KQU1 170027Z 18010KT 13/03 A2997 RMK A01 T01340025  RH  047%=      5-min Rain = 0
KQU1 170028Z 18010KT 13/03 A2997 RMK A01 T01340025  RH  048%=      5-min Rain = 0
KQU1 170029Z 18010KT 13/03 A2997 RMK A01 T01330025  RH  048%=      5-min Rain = 0
KQU1 170030Z 18009KT 13/03 A2997 RMK A01 T01320025  RH  048%=      5-min Rain = 0
KQU1 170031Z 18010KT 13/03 A2996 RMK A01 T01320025  RH  048%=      5-min Rain = 0
KQU1 170032Z 18010KT 13/03 A2996 RMK A01 T01310025  RH  048%=      5-min Rain = 0
KQU1 170033Z 18009KT 13/03 A2996 RMK A01 T01310025  RH  049%=      5-min Rain = 0
KQU1 170034Z 18010KT 13/03 A2996 RMK A01 T01300025  RH  049%=      5-min Rain = 0
KQU1 170035Z 18009KT 13/03 A2996 RMK A01 T01280025  RH  049%=      5-min Rain = 0
KQU1 170036Z 19010KT 13/03 A2996 RMK A01 T01270025  RH  050%=      5-min Rain = 0
KQU1 170037Z 18010KT 13/02 A2996 RMK A01 T01260024  RH  050%=      5-min Rain = 0
KQU1 170038Z 18009KT 13/02 A2996 RMK A01 T01250024  RH  050%=      5-min Rain = 0
KQU1 170039Z 18010KT 13/02 A2996 RMK A01 T01250024  RH  050%=      5-min Rain = 0
KQU1 170040Z 18009KT 12/02 A2996 RMK A01 T01240024  RH  051%=      5-min Rain = 0
KQU1 170041Z 18009KT 12/02 A2997 RMK A01 T01230024  RH  051%=      5-min Rain = 0
KQU1 170042Z 19009KT 12/02 A2997 RMK A01 T01220024  RH  051%=      5-min Rain = 0
KQU1 170043Z 19008KT 12/02 A2997 RMK A01 T01210023  RH  051%=      5-min Rain = 0
KQU1 170044Z 19008KT 12/02 A2997 RMK A01 T01190023  RH  052%=      5-min Rain = 0
KQU1 170045Z 19008KT 12/02 A2997 RMK A01 T01170022  RH  052%=      5-min Rain = 0
KQU1 170046Z 20007KT 12/02 A2997 RMK A01 T01150021  RH  053%=      5-min Rain = 0
KQU1 170047Z 20007KT 11/02 A2997 RMK A01 T01130021  RH  053%=      5-min Rain = 0
KQU1 170048Z 20008KT 11/02 A2997 RMK A01 T01110020  RH  054%=      5-min Rain = 0
KQU1 170049Z 20008KT 11/02 A2997 RMK A01 T01090020  RH  054%=      5-min Rain = 0
KQU1 170050Z 20009KT 11/02 A2997 RMK A01 T01070020  RH  055%=      5-min Rain = 0
KQU1 170051Z 20009KT 11/02 A2997 RMK A01 T01060020  RH  055%=      5-min Rain = 0
KQU1 170052Z 20009KT 10/02 A2997 RMK A01 T01040020  RH  056%=      5-min Rain = 0
KQU1 170053Z 20009KT 10/02 A2997 RMK A01 T01030019  RH  056%=      5-min Rain = 0
KQU1 170054Z 20009KT 10/02 A2997 RMK A01 T01020019  RH  057%=      5-min Rain = 0
KQU1 170055Z 20009KT 10/02 A2997 RMK A01 T01010019  RH  057%=      5-min Rain = 0
KQU1 170056Z 20009KT 10/02 A2997 RMK A01 T01000019  RH  057%=      5-min Rain = 0
KQU1 170057Z 20009KT 10/02 A2997 RMK A01 T01000020  RH  058%=      5-min Rain = 0
KQU1 170058Z 20009KT 10/02 A2997 RMK A01 T00990020  RH  058%=      5-min Rain = 0
KQU1 170059Z 20009KT 10/02 A2997 RMK A01 T00990020  RH  058%=      5-min Rain = 0
KQU1 170100Z 20009KT 10/02 A2997 RMK A01 T00990020  RH  058%=      5-min Rain = 0
KQU1 170101Z 19008KT 10/02 A2997 RMK A01 T00990020  RH  058%=      5-min Rain = 0
KQU1 170102Z 19008KT 10/02 A2997 RMK A01 T00990020  RH  058%=      5-min Rain = 0
KQU1 170103Z 19008KT 10/02 A2997 RMK A01 T00990021  RH  058%=      5-min Rain = 0
KQU1 170104Z 19008KT 10/02 A2997 RMK A01 T00990021  RH  058%=      5-min Rain = 0
KQU1 170105Z 19008KT 10/02 A2997 RMK A01 T00990021  RH  058%=      5-min Rain = 0
KQU1 170106Z 19008KT 10/02 A2997 RMK A01 T00990022  RH  059%=      5-min Rain = 0
KQU1 170107Z 19008KT 10/02 A2997 RMK A01 T00990022  RH  059%=      5-min Rain = 0
KQU1 170108Z 19008KT 10/02 A2997 RMK A01 T00990022  RH  059%=      5-min Rain = 0
KQU1 170109Z 19008KT 10/02 A2997 RMK A01 T00990022  RH  059%=      5-min Rain = 0
KQU1 170110Z 19008KT 10/02 A2997 RMK A01 T00990022  RH  059%=      5-min Rain = 0
KQU1 170111Z 19008KT 10/02 A2997 RMK A01 T00990022  RH  059%=      5-min Rain = 0
KQU1 170112Z 20007KT 10/02 A2997 RMK A01 T00990023  RH  059%=      5-min Rain = 0
KQU1 170113Z 20007KT 10/02 A2997 RMK A01 T00990023  RH  059%=      5-min Rain = 0
KQU1 170114Z 20008KT 10/02 A2997 RMK A01 T00990023  RH  059%=      5-min Rain = 0
KQU1 170115Z 20008KT 10/02 A2997 RMK A01 T00990023  RH  059%=      5-min Rain = 0
KQU1 170116Z 20008KT 10/02 A2997 RMK A01 T00990024  RH  059%=      5-min Rain = 0
KQU1 170117Z 20008KT 10/02 A2997 RMK A01 T01000024  RH  059%=      5-min Rain = 0
KQU1 170118Z 20008KT 10/02 A2997 RMK A01 T01000024  RH  059%=      5-min Rain = 0
KQU1 170119Z 20007KT 10/02 A2997 RMK A01 T01000024  RH  059%=      5-min Rain = 0
KQU1 170120Z 20008KT 10/02 A2997 RMK A01 T01000024  RH  059%=      5-min Rain = 0
KQU1 170121Z 21008KT 10/03 A2997 RMK A01 T01000025  RH  059%=      5-min Rain = 0
KQU1 170122Z 20008KT 10/03 A2997 RMK A01 T01010025  RH  059%=      5-min Rain = 0
KQU1 170123Z 20008KT 10/03 A2997 RMK A01 T01010025  RH  059%=      5-min Rain = 0
KQU1 170124Z 21008KT 10/03 A2997 RMK A01 T01020026  RH  059%=      5-min Rain = 0
KQU1 170125Z 21008KT 10/03 A2997 RMK A01 T01020026  RH  059%=      5-min Rain = 0
KQU1 170126Z 21008KT 10/03 A2997 RMK A01 T01030026  RH  059%=      5-min Rain = 0
KQU1 170127Z 21008KT 10/03 A2997 RMK A01 T01030026  RH  059%=      5-min Rain = 0
KQU1 170128Z 21008KT 10/03 A2997 RMK A01 T01030027  RH  059%=      5-min Rain = 0
KQU1 170129Z 20008KT 10/03 A2997 RMK A01 T01040027  RH  059%=      5-min Rain = 0
KQU1 170130Z 20009KT 10/03 A2997 RMK A01 T01040027  RH  059%=      5-min Rain = 0
KQU1 170131Z 20009KT 11/03 A2997 RMK A01 T01050027  RH  059%=      5-min Rain = 0
KQU1 170132Z 20009KT 11/03 A2997 RMK A01 T01050028  RH  059%=      5-min Rain = 0
KQU1 170133Z 20009KT 11/03 A2997 RMK A01 T01060028  RH  059%=      5-min Rain = 0
KQU1 170134Z 20009KT 11/03 A2997 RMK A01 T01060028  RH  058%=      5-min Rain = 0
KQU1 170135Z 20009KT 11/03 A2997 RMK A01 T01070028  RH  058%=      5-min Rain = 0
KQU1 170136Z 20009KT 11/03 A2997 RMK A01 T01070028  RH  058%=      5-min Rain = 0
KQU1 170137Z 20009KT 11/03 A2997 RMK A01 T01070028  RH  058%=      5-min Rain = 0
KQU1 170138Z 20009KT 11/03 A2997 RMK A01 T01070029  RH  058%=      5-min Rain = 0
KQU1 170139Z 20009KT 11/03 A2997 RMK A01 T01080029  RH  058%=      5-min Rain = 0
KQU1 170140Z 20009KT 11/03 A2997 RMK A01 T01080029  RH  058%=      5-min Rain = 0
KQU1 170141Z 20009KT 11/03 A2997 RMK A01 T01080029  RH  058%=      5-min Rain = 0
KQU1 170142Z 20009KT 11/03 A2997 RMK A01 T01080029  RH  058%=      5-min Rain = 0
KQU1 170143Z 20009KT 11/03 A2997 RMK A01 T01080029  RH  058%=      5-min Rain = 0
KQU1 170144Z 20009KT 11/03 A2997 RMK A01 T01080029  RH  058%=      5-min Rain = 0
KQU1 170145Z 20008KT 11/03 A2997 RMK A01 T01080029  RH  058%=      5-min Rain = 0
KQU1 170146Z 20008KT 11/03 A2997 RMK A01 T01070029  RH  058%=      5-min Rain = 0
KQU1 170147Z 20008KT 11/03 A2997 RMK A01 T01070028  RH  058%=      5-min Rain = 0
KQU1 170148Z 20008KT 11/03 A2997 RMK A01 T01060028  RH  058%=      5-min Rain = 0
KQU1 170149Z 20008KT 11/03 A2997 RMK A01 T01060028  RH  059%=      5-min Rain = 0
KQU1 170150Z 20008KT 11/03 A2997 RMK A01 T01050028  RH  059%=      5-min Rain = 0
KQU1 170151Z 20008KT 11/03 A2997 RMK A01 T01050028  RH  059%=      5-min Rain = 0
KQU1 170152Z 20009KT 11/03 A2997 RMK A01 T01050028  RH  059%=      5-min Rain = 0
KQU1 170153Z 20008KT 10/03 A2997 RMK A01 T01040028  RH  059%=      5-min Rain = 0
KQU1 170154Z 20009KT 10/03 A2997 RMK A01 T01040028  RH  059%=      5-min Rain = 0
KQU1 170155Z 20009KT 10/03 A2996 RMK A01 T01040028  RH  060%=      5-min Rain = 0
KQU1 170156Z 20009KT 10/03 A2996 RMK A01 T01030028  RH  060%=      5-min Rain = 0
KQU1 170157Z 20009KT 10/03 A2996 RMK A01 T01030028  RH  060%=      5-min Rain = 0
KQU1 170158Z 19009KT 10/03 A2996 RMK A01 T01020028  RH  060%=      5-min Rain = 0
KQU1 170159Z 19010KT 10/03 A2996 RMK A01 T01020028  RH  060%=      5-min Rain = 0
KQU1 170200Z 19010KT 10/03 A2996 RMK A01 T01020028  RH  060%=      5-min Rain = 0
KQU1 170201Z 19010KT 10/03 A2996 RMK A01 T01020028  RH  060%=      5-min Rain = 0
KQU1 170202Z 19011KT 10/03 A2996 RMK A01 T01020028  RH  060%=      5-min Rain = 0
KQU1 170203Z 19011KT 10/03 A2996 RMK A01 T01020029  RH  060%=      5-min Rain = 0
KQU1 170204Z 19011KT 10/03 A2996 RMK A01 T01030029  RH  060%=      5-min Rain = 0
KQU1 170205Z 19010KT 10/03 A2996 RMK A01 T01030028  RH  060%=      5-min Rain = 0
KQU1 170206Z 19010KT 10/03 A2996 RMK A01 T01020028  RH  060%=      5-min Rain = 0
KQU1 170207Z 19011KT 10/03 A2996 RMK A01 T01020028  RH  060%=      5-min Rain = 0
KQU1 170208Z 19010KT 10/03 A2996 RMK A01 T01020028  RH  060%=      5-min Rain = 0
KQU1 170209Z 19010KT 10/03 A2996 RMK A01 T01010028  RH  060%=      5-min Rain = 0
KQU1 170210Z 19010KT 10/03 A2996 RMK A01 T01010028  RH  060%=      5-min Rain = 0
KQU1 170211Z 19010KT 10/03 A2996 RMK A01 T01010028  RH  061%=      5-min Rain = 0
KQU1 170212Z 19010KT 10/03 A2996 RMK A01 T01000028  RH  061%=      5-min Rain = 0
KQU1 170213Z 19010KT 10/03 A2996 RMK A01 T01000028  RH  061%=      5-min Rain = 0
KQU1 170214Z 19010KT 10/03 A2996 RMK A01 T00990028  RH  061%=      5-min Rain = 0
KQU1 170215Z 19010KT 10/03 A2996 RMK A01 T00990028  RH  061%=      5-min Rain = 0
KQU1 170216Z 19010KT 10/03 A2996 RMK A01 T00980028  RH  061%=      5-min Rain = 0
KQU1 170217Z 19010KT 10/03 A2996 RMK A01 T00980028  RH  062%=      5-min Rain = 0
KQU1 170218Z 19010KT 10/03 A2996 RMK A01 T00980028  RH  062%=      5-min Rain = 0
KQU1 170219Z 19010KT 10/03 A2996 RMK A01 T00980028  RH  062%=      5-min Rain = 0
KQU1 170220Z 19010KT 10/03 A2996 RMK A01 T00970028  RH  062%=      5-min Rain = 0
KQU1 170221Z 19010KT 10/03 A2996 RMK A01 T00980028  RH  062%=      5-min Rain = 0
KQU1 170222Z 19010KT 10/03 A2996 RMK A01 T00980028  RH  062%=      5-min Rain = 0
KQU1 170223Z 19010KT 10/03 A2996 RMK A01 T00980028  RH  062%=      5-min Rain = 0
KQU1 170224Z 20009KT 10/03 A2996 RMK A01 T00980028  RH  062%=      5-min Rain = 0
KQU1 170225Z 20010KT 10/03 A2996 RMK A01 T00980029  RH  062%=      5-min Rain = 0
KQU1 170226Z 20010KT 10/03 A2996 RMK A01 T00980029  RH  062%=      5-min Rain = 0
KQU1 170227Z 20010KT 10/03 A2996 RMK A01 T00990029  RH  062%=      5-min Rain = 0
KQU1 170228Z 20010KT 10/03 A2996 RMK A01 T00990029  RH  062%=      5-min Rain = 0
KQU1 170229Z 20009KT 10/03 A2996 RMK A01 T01000030  RH  062%=      5-min Rain = 0
KQU1 170230Z 20009KT 10/03 A2996 RMK A01 T01000030  RH  061%=      5-min Rain = 0
KQU1 170231Z 20009KT 10/03 A2996 RMK A01 T01010030  RH  061%=      5-min Rain = 0
KQU1 170232Z 20009KT 10/03 A2996 RMK A01 T01010029  RH  061%=      5-min Rain = 0
KQU1 170233Z 20009KT 10/03 A2996 RMK A01 T01010029  RH  061%=      5-min Rain = 0
KQU1 170234Z 20009KT 10/03 A2996 RMK A01 T01010029  RH  061%=      5-min Rain = 0
KQU1 170235Z 20008KT 10/03 A2996 RMK A01 T01010029  RH  061%=      5-min Rain = 0
KQU1 170236Z 20008KT 10/03 A2996 RMK A01 T01000029  RH  061%=      5-min Rain = 0
KQU1 170237Z 20009KT 10/03 A2996 RMK A01 T01000029  RH  061%=      5-min Rain = 0
KQU1 170238Z 20009KT 10/03 A2996 RMK A01 T00990029  RH  061%=      5-min Rain = 0
KQU1 170239Z 20009KT 10/03 A2996 RMK A01 T00990029  RH  062%=      5-min Rain = 0
KQU1 170240Z 20009KT 10/03 A2996 RMK A01 T00990029  RH  062%=      5-min Rain = 0
KQU1 170241Z 20009KT 10/03 A2996 RMK A01 T00980028  RH  062%=      5-min Rain = 0
KQU1 170242Z 20009KT 10/03 A2996 RMK A01 T00980028  RH  062%=      5-min Rain = 0
KQU1 170243Z 20009KT 10/03 A2996 RMK A01 T00970028  RH  062%=      5-min Rain = 0
KQU1 170244Z 20009KT 10/03 A2996 RMK A01 T00970028  RH  062%=      5-min Rain = 0
KQU1 170245Z 20009KT 10/03 A2996 RMK A01 T00960028  RH  062%=      5-min Rain = 0
KQU1 170246Z 20009KT 10/03 A2996 RMK A01 T00960028  RH  063%=      5-min Rain = 0
KQU1 170247Z 20009KT 10/03 A2996 RMK A01 T00960028  RH  063%=      5-min Rain = 0
KQU1 170248Z 20009KT 10/03 A2996 RMK A01 T00950028  RH  063%=      5-min Rain = 0
KQU1 170249Z 20009KT 10/03 A2996 RMK A01 T00950028  RH  063%=      5-min Rain = 0
KQU1 170250Z 20010KT 10/03 A2996 RMK A01 T00950028  RH  063%=      5-min Rain = 0
KQU1 170251Z 20010KT 10/03 A2995 RMK A01 T00950029  RH  063%=      5-min Rain = 0
KQU1 170252Z 20009KT 10/03 A2995 RMK A01 T00960029  RH  063%=      5-min Rain = 0
KQU1 170253Z 20009KT 10/03 A2995 RMK A01 T00960029  RH  063%=      5-min Rain = 0
KQU1 170254Z 20009KT 10/03 A2996 RMK A01 T00960029  RH  063%=      5-min Rain = 0
KQU1 170255Z 20009KT 10/03 A2996 RMK A01 T00960029  RH  063%=      5-min Rain = 0
KQU1 170256Z 20009KT 10/03 A2996 RMK A01 T00970029  RH  063%=      5-min Rain = 0
KQU1 170257Z 20009KT 10/03 A2996 RMK A01 T00970029  RH  063%=      5-min Rain = 0
KQU1 170258Z 20009KT 10/03 A2996 RMK A01 T00970029  RH  063%=      5-min Rain = 0
KQU1 170259Z 20008KT 10/03 A2996 RMK A01 T00970029  RH  063%=      5-min Rain = 0
KQU1 170300Z 20009KT 10/03 A2996 RMK A01 T00970029  RH  063%=      5-min Rain = 0
KQU1 170301Z 20009KT 10/03 A2996 RMK A01 T00970029  RH  063%=      5-min Rain = 0
KQU1 170302Z 20009KT 10/03 A2996 RMK A01 T00970029  RH  063%=      5-min Rain = 0
KQU1 170303Z 20009KT 10/03 A2996 RMK A01 T00970030  RH  063%=      5-min Rain = 0
KQU1 170304Z 20009KT 10/03 A2996 RMK A01 T00980030  RH  063%=      5-min Rain = 0
KQU1 170305Z 20009KT 10/03 A2996 RMK A01 T00980030  RH  062%=      5-min Rain = 0
KQU1 170306Z 20009KT 10/03 A2996 RMK A01 T00980030  RH  062%=      5-min Rain = 0
KQU1 170307Z 21009KT 10/03 A2996 RMK A01 T00980029  RH  062%=      5-min Rain = 0
KQU1 170308Z 21009KT 10/03 A2996 RMK A01 T00980029  RH  062%=      5-min Rain = 0
KQU1 170309Z 20009KT 10/03 A2996 RMK A01 T00980030  RH  062%=      5-min Rain = 0
KQU1 170310Z 20009KT 10/03 A2996 RMK A01 T00980030  RH  063%=      5-min Rain = 0
KQU1 170311Z 21009KT 10/03 A2996 RMK A01 T00980030  RH  063%=      5-min Rain = 0
KQU1 170312Z 21008KT 10/03 A2996 RMK A01 T00970030  RH  063%=      5-min Rain = 0
KQU1 170313Z 21008KT 10/03 A2996 RMK A01 T00970030  RH  063%=      5-min Rain = 0
KQU1 170314Z 21008KT 10/03 A2996 RMK A01 T00970029  RH  063%=      5-min Rain = 0
KQU1 170315Z 21008KT 10/03 A2996 RMK A01 T00970029  RH  063%=      5-min Rain = 0
KQU1 170316Z 21009KT 10/03 A2996 RMK A01 T00960029  RH  063%=      5-min Rain = 0
KQU1 170317Z 21009KT 10/03 A2996 RMK A01 T00960029  RH  063%=      5-min Rain = 0
KQU1 170318Z 21009KT 10/03 A2996 RMK A01 T00960029  RH  063%=      5-min Rain = 0
KQU1 170319Z 21009KT 10/03 A2996 RMK A01 T00960029  RH  063%=      5-min Rain = 0
KQU1 170320Z 21009KT 10/03 A2996 RMK A01 T00960030  RH  063%=      5-min Rain = 0
KQU1 170321Z 21009KT 10/03 A2995 RMK A01 T00960030  RH  063%=      5-min Rain = 0
KQU1 170322Z 21009KT 10/03 A2995 RMK A01 T00960030  RH  063%=      5-min Rain = 0
KQU1 170323Z 21009KT 10/03 A2995 RMK A01 T00960030  RH  063%=      5-min Rain = 0
KQU1 170324Z 21008KT 10/03 A2995 RMK A01 T00970030  RH  063%=      5-min Rain = 0
KQU1 170325Z 21008KT 10/03 A2995 RMK A01 T00970030  RH  063%=      5-min Rain = 0
KQU1 170326Z 21008KT 10/03 A2995 RMK A01 T00970030  RH  063%=      5-min Rain = 0
KQU1 170327Z 21008KT 10/03 A2995 RMK A01 T00980030  RH  063%=      5-min Rain = 0
KQU1 170328Z 21007KT 10/03 A2995 RMK A01 T00980030  RH  063%=      5-min Rain = 0
KQU1 170329Z 21007KT 10/03 A2995 RMK A01 T00980030  RH  063%=      5-min Rain = 0
KQU1 170330Z 21007KT 10/03 A2995 RMK A01 T00970030  RH  063%=      5-min Rain = 0
KQU1 170331Z 21006KT 10/03 A2995 RMK A01 T00970030  RH  063%=      5-min Rain = 0
KQU1 170332Z 22006KT 10/03 A2996 RMK A01 T00970029  RH  063%=      5-min Rain = 0
KQU1 170333Z 22006KT 10/03 A2996 RMK A01 T00960029  RH  063%=      5-min Rain = 0
KQU1 170334Z 22006KT 10/03 A2996 RMK A01 T00960029  RH  063%=      5-min Rain = 0
KQU1 170335Z 21007KT 10/03 A2996 RMK A01 T00950029  RH  063%=      5-min Rain = 0
KQU1 170336Z 21007KT 10/03 A2995 RMK A01 T00950029  RH  063%=      5-min Rain = 0
KQU1 170337Z 21006KT 09/03 A2995 RMK A01 T00940029  RH  064%=      5-min Rain = 0
KQU1 170338Z 21006KT 09/03 A2995 RMK A01 T00940029  RH  064%=      5-min Rain = 0
KQU1 170339Z 21006KT 09/03 A2995 RMK A01 T00940028  RH  064%=      5-min Rain = 0
KQU1 170340Z 21006KT 09/03 A2995 RMK A01 T00930028  RH  064%=      5-min Rain = 0
KQU1 170341Z 21006KT 09/03 A2996 RMK A01 T00930028  RH  064%=      5-min Rain = 0
KQU1 170342Z 21005KT 09/03 A2996 RMK A01 T00920028  RH  064%=      5-min Rain = 0
KQU1 170343Z 21005KT 09/03 A2996 RMK A01 T00920028  RH  064%=      5-min Rain = 0
KQU1 170344Z 22005KT 09/03 A2996 RMK A01 T00910028  RH  064%=      5-min Rain = 0
KQU1 170345Z 22005KT 09/03 A2996 RMK A01 T00910027  RH  064%=      5-min Rain = 0
KQU1 170346Z 22004KT 09/03 A2996 RMK A01 T00900027  RH  065%=      5-min Rain = 0
KQU1 170347Z 22004KT 09/03 A2996 RMK A01 T00900027  RH  065%=      5-min Rain = 0
KQU1 170348Z 22004KT 09/03 A2996 RMK A01 T00900027  RH  065%=      5-min Rain = 0
KQU1 170349Z 22004KT 09/03 A2996 RMK A01 T00890027  RH  065%=      5-min Rain = 0
KQU1 170350Z 22004KT 09/03 A2996 RMK A01 T00890027  RH  065%=      5-min Rain = 0
KQU1 170351Z 21004KT 09/03 A2996 RMK A01 T00890027  RH  065%=      5-min Rain = 0
KQU1 170352Z 22005KT 09/03 A2996 RMK A01 T00890028  RH  065%=      5-min Rain = 0
KQU1 170353Z 21006KT 09/03 A2996 RMK A01 T00900028  RH  065%=      5-min Rain = 0
KQU1 170354Z 21006KT 09/03 A2996 RMK A01 T00910029  RH  065%=      5-min Rain = 0
KQU1 170355Z 21005KT 09/03 A2996 RMK A01 T00920030  RH  065%=      5-min Rain = 0
KQU1 170356Z 21005KT 09/03 A2996 RMK A01 T00930030  RH  065%=      5-min Rain = 0
KQU1 170357Z 21005KT 09/03 A2996 RMK A01 T00940031  RH  065%=      5-min Rain = 0
KQU1 170358Z 21005KT 10/03 A2996 RMK A01 T00960032  RH  064%=      5-min Rain = 0
KQU1 170359Z 21005KT 10/03 A2996 RMK A01 T00990033  RH  064%=      5-min Rain = 0
KQU1 170400Z 21005KT 10/03 A2996 RMK A01 T01010033  RH  063%=      5-min Rain = 0
KQU1 170401Z 21005KT 10/03 A2996 RMK A01 T01030032  RH  062%=      5-min Rain = 0
KQU1 170402Z 21005KT 10/03 A2996 RMK A01 T01040032  RH  061%=      5-min Rain = 0
KQU1 170403Z 20005KT 11/03 A2996 RMK A01 T01050031  RH  060%=      5-min Rain = 0
KQU1 170404Z 20005KT 10/03 A2996 RMK A01 T01040031  RH  060%=      5-min Rain = 0
KQU1 170405Z 20005KT 10/03 A2996 RMK A01 T01040030  RH  060%=      5-min Rain = 0
KQU1 170406Z 20006KT 10/03 A2996 RMK A01 T01030030  RH  060%=      5-min Rain = 0
KQU1 170407Z 21006KT 10/03 A2996 RMK A01 T01020030  RH  061%=      5-min Rain = 0
KQU1 170408Z 20007KT 10/03 A2996 RMK A01 T01020030  RH  061%=      5-min Rain = 0
KQU1 170409Z 21006KT 10/03 A2996 RMK A01 T01010029  RH  061%=      5-min Rain = 0
KQU1 170410Z 20007KT 10/03 A2996 RMK A01 T01010030  RH  061%=      5-min Rain = 0
KQU1 170411Z 20007KT 10/03 A2996 RMK A01 T01020030  RH  061%=      5-min Rain = 0
KQU1 170412Z 20008KT 10/03 A2996 RMK A01 T01030030  RH  061%=      5-min Rain = 0
KQU1 170413Z 20007KT 10/03 A2996 RMK A01 T01040030  RH  060%=      5-min Rain = 0
KQU1 170414Z 20007KT 11/03 A2996 RMK A01 T01050030  RH  060%=      5-min Rain = 0
KQU1 170415Z 20007KT 11/03 A2996 RMK A01 T01050030  RH  060%=      5-min Rain = 0
KQU1 170416Z 20007KT 11/03 A2996 RMK A01 T01060030  RH  060%=      5-min Rain = 0
KQU1 170417Z 20008KT 11/03 A2996 RMK A01 T01060031  RH  060%=      5-min Rain = 0
KQU1 170418Z 21008KT 11/03 A2996 RMK A01 T01070031  RH  059%=      5-min Rain = 0
KQU1 170419Z 21008KT 11/03 A2996 RMK A01 T01080031  RH  059%=      5-min Rain = 0
KQU1 170420Z 21007KT 11/03 A2996 RMK A01 T01090032  RH  059%=      5-min Rain = 0
KQU1 170421Z 21007KT 11/03 A2996 RMK A01 T01100032  RH  059%=      5-min Rain = 0
KQU1 170422Z 21007KT 11/03 A2996 RMK A01 T01110032  RH  058%=      5-min Rain = 0
KQU1 170423Z 21006KT 11/03 A2996 RMK A01 T01110031  RH  058%=      5-min Rain = 0
KQU1 170424Z 20006KT 11/03 A2996 RMK A01 T01110031  RH  058%=      5-min Rain = 0
KQU1 170425Z 20006KT 11/03 A2996 RMK A01 T01110031  RH  058%=      5-min Rain = 0
KQU1 170426Z 20005KT 11/03 A2996 RMK A01 T01100031  RH  058%=      5-min Rain = 0
KQU1 170427Z 20005KT 11/03 A2996 RMK A01 T01100031  RH  058%=      5-min Rain = 0
KQU1 170428Z 20005KT 11/03 A2996 RMK A01 T01100030  RH  058%=      5-min Rain = 0
KQU1 170429Z 20005KT 11/03 A2996 RMK A01 T01100030  RH  058%=      5-min Rain = 0
KQU1 170430Z 20004KT 11/03 A2996 RMK A01 T01090030  RH  058%=      5-min Rain = 0
KQU1 170431Z 20004KT 11/03 A2997 RMK A01 T01090030  RH  058%=      5-min Rain = 0
KQU1 170432Z 20003KT 11/03 A2997 RMK A01 T01080029  RH  058%=      5-min Rain = 0
KQU1 170433Z 20002KT 11/03 A2997 RMK A01 T01080029  RH  058%=      5-min Rain = 0
KQU1 170434Z 20000KT 11/03 A2997 RMK A01 T01070029  RH  058%=      5-min Rain = 0
KQU1 170435Z 00000KT 11/03 A2997 RMK A01 T01060029  RH  059%=      5-min Rain = 0
KQU1 170436Z 00000KT 11/03 A2997 RMK A01 T01060031  RH  060%=      5-min Rain = 0
KQU1 170437Z 00000KT 11/03 A2997 RMK A01 T01050031  RH  060%=      5-min Rain = 0
KQU1 170438Z 00000KT 11/03 A2997 RMK A01 T01050030  RH  060%=      5-min Rain = 0
KQU1 170439Z 00000KT 11/03 A2997 RMK A01 T01050030  RH  060%=      5-min Rain = 0
KQU1 170440Z 00000KT 11/03 A2997 RMK A01 T01060030  RH  060%=      5-min Rain = 0
KQU1 170441Z 18000KT 11/03 A2997 RMK A01 T01060030  RH  059%=      5-min Rain = 0
KQU1 170442Z 17001KT 11/03 A2997 RMK A01 T01070030  RH  059%=      5-min Rain = 0
KQU1 170443Z 17001KT 11/03 A2997 RMK A01 T01070030  RH  059%=      5-min Rain = 0
KQU1 170444Z 16002KT 11/03 A2997 RMK A01 T01060029  RH  059%=      5-min Rain = 0
KQU1 170445Z 17002KT 11/03 A2997 RMK A01 T01050028  RH  059%=      5-min Rain = 0
KQU1 170446Z 17002KT 10/03 A2997 RMK A01 T01040028  RH  059%=      5-min Rain = 0
KQU1 170447Z 16003KT 10/03 A2997 RMK A01 T01040028  RH  059%=      5-min Rain = 0
KQU1 170448Z 16003KT 10/03 A2997 RMK A01 T01030028  RH  060%=      5-min Rain = 0
KQU1 170449Z 16003KT 10/03 A2997 RMK A01 T01030028  RH  060%=      5-min Rain = 0
KQU1 170450Z 16003KT 10/03 A2997 RMK A01 T01030028  RH  060%=      5-min Rain = 0
KQU1 170451Z 16003KT 10/03 A2997 RMK A01 T01020028  RH  060%=      5-min Rain = 0
KQU1 170452Z 16004KT 10/03 A2997 RMK A01 T01020028  RH  060%=      5-min Rain = 0
KQU1 170453Z 15003KT 10/03 A2997 RMK A01 T01020028  RH  060%=      5-min Rain = 0
KQU1 170454Z 16004KT 10/03 A2997 RMK A01 T01010028  RH  060%=      5-min Rain = 0
KQU1 170455Z 16004KT 10/03 A2997 RMK A01 T01010027  RH  060%=      5-min Rain = 0
KQU1 170456Z 15004KT 10/03 A2996 RMK A01 T00990026  RH  060%=      5-min Rain = 0
KQU1 170457Z 15004KT 10/03 A2996 RMK A01 T00990027  RH  061%=      5-min Rain = 0
KQU1 170458Z 15005KT 10/03 A2996 RMK A01 T00990027  RH  061%=      5-min Rain = 0
KQU1 170459Z 16005KT 10/03 A2996 RMK A01 T00980026  RH  061%=      5-min Rain = 0
KQU1 170500Z 15003KT 10/03 A2996 RMK A01 T00980026  RH  061%=      5-min Rain = 0
KQU1 170501Z 14002KT 10/03 A2996 RMK A01 T00970025  RH  061%=      5-min Rain = 0
KQU1 170502Z 25001KT 09/02 A2997 RMK A01 T00940024  RH  062%=      5-min Rain = 0
KQU1 170503Z 26001KT 09/03 A2996 RMK A01 T00930026  RH  063%=      5-min Rain = 0
KQU1 170504Z 17001KT 09/03 A2996 RMK A01 T00930027  RH  063%=      5-min Rain = 0
KQU1 170505Z 17002KT 09/03 A2996 RMK A01 T00940027  RH  063%=      5-min Rain = 0
KQU1 170506Z 17001KT 10/03 A2996 RMK A01 T00950028  RH  063%=      5-min Rain = 0
KQU1 170507Z 00000KT 10/03 A2996 RMK A01 T00950028  RH  063%=      5-min Rain = 0
KQU1 170508Z 21000KT 10/03 A2996 RMK A01 T00950028  RH  063%=      5-min Rain = 0
KQU1 170509Z 20000KT 10/03 A2996 RMK A01 T00950027  RH  063%=      5-min Rain = 0
KQU1 170510Z 00000KT 10/03 A2996 RMK A01 T00950027  RH  063%=      5-min Rain = 0
KQU1 170511Z 00000KT 10/03 A2996 RMK A01 T00950027  RH  063%=      5-min Rain = 0
KQU1 170512Z 13000KT 10/03 A2996 RMK A01 T00950028  RH  063%=      5-min Rain = 0
KQU1 170513Z 15002KT 10/03 A2996 RMK A01 T00950027  RH  063%=      5-min Rain = 0
KQU1 170514Z 16003KT 10/03 A2996 RMK A01 T00950027  RH  063%=      5-min Rain = 0
KQU1 170515Z 17003KT 10/03 A2996 RMK A01 T00950027  RH  063%=      5-min Rain = 0
KQU1 170516Z 17004KT 09/03 A2996 RMK A01 T00940027  RH  063%=      5-min Rain = 0
KQU1 170517Z 16004KT 09/03 A2996 RMK A01 T00940027  RH  063%=      5-min Rain = 0
KQU1 170518Z 15003KT 09/03 A2996 RMK A01 T00940027  RH  063%=      5-min Rain = 0
KQU1 170519Z 15003KT 09/03 A2996 RMK A01 T00940027  RH  063%=      5-min Rain = 0
KQU1 170520Z 15002KT 09/03 A2996 RMK A01 T00940027  RH  063%=      5-min Rain = 0
KQU1 170521Z 15002KT 09/03 A2996 RMK A01 T00930026  RH  063%=      5-min Rain = 0
KQU1 170522Z 15003KT 09/03 A2996 RMK A01 T00930026  RH  063%=      5-min Rain = 0
KQU1 170523Z 14003KT 09/03 A2996 RMK A01 T00920026  RH  063%=      5-min Rain = 0
KQU1 170524Z 14003KT 09/03 A2996 RMK A01 T00920026  RH  063%=      5-min Rain = 0
KQU1 170525Z 14003KT 09/03 A2996 RMK A01 T00920026  RH  064%=      5-min Rain = 0
KQU1 170526Z 14003KT 09/03 A2997 RMK A01 T00910026  RH  064%=      5-min Rain = 0
KQU1 170527Z 14002KT 09/03 A2997 RMK A01 T00910027  RH  064%=      5-min Rain = 0
KQU1 170528Z 14002KT 09/03 A2997 RMK A01 T00910027  RH  065%=      5-min Rain = 0
KQU1 170529Z 15002KT 09/03 A2997 RMK A01 T00910028  RH  065%=      5-min Rain = 0
KQU1 170530Z 13002KT 09/03 A2997 RMK A01 T00920029  RH  065%=      5-min Rain = 0
KQU1 170531Z 14002KT 09/03 A2997 RMK A01 T00930030  RH  065%=      5-min Rain = 0
KQU1 170532Z 14002KT 10/03 A2997 RMK A01 T00950030  RH  064%=      5-min Rain = 0
KQU1 170533Z 12003KT 10/03 A2997 RMK A01 T00970031  RH  064%=      5-min Rain = 0
KQU1 170534Z 13003KT 10/03 A2997 RMK A01 T00990032  RH  063%=      5-min Rain = 0
KQU1 170535Z 12002KT 10/03 A2997 RMK A01 T01010033  RH  063%=      5-min Rain = 0
KQU1 170536Z 06002KT 10/03 A2997 RMK A01 T01020032  RH  062%=      5-min Rain = 0
KQU1 170537Z 01003KT 10/03 A2997 RMK A01 T00990031  RH  063%=      5-min Rain = 0
KQU1 170538Z 02003KT 10/03 A2997 RMK A01 T00960030  RH  064%=      5-min Rain = 0
KQU1 170539Z 36003KT 09/03 A2997 RMK A01 T00930028  RH  064%=      5-min Rain = 0
KQU1 170540Z 00003KT 09/03 A2997 RMK A01 T00900027  RH  065%=      5-min Rain = 0
KQU1 170541Z 36003KT 09/03 A2997 RMK A01 T00880027  RH  065%=      5-min Rain = 0
KQU1 170542Z 01003KT 09/03 A2997 RMK A01 T00870027  RH  066%=      5-min Rain = 0
KQU1 170543Z 01004KT 09/03 A2997 RMK A01 T00870027  RH  066%=      5-min Rain = 0
KQU1 170544Z 00004KT 09/03 A2997 RMK A01 T00860027  RH  067%=      5-min Rain = 0
KQU1 170545Z 01004KT 09/03 A2997 RMK A01 T00850027  RH  067%=      5-min Rain = 0
KQU1 170546Z 01005KT 09/03 A2997 RMK A01 T00850027  RH  067%=      5-min Rain = 0
KQU1 170547Z 02005KT 08/03 A2997 RMK A01 T00840027  RH  068%=      5-min Rain = 0
KQU1 170548Z 02005KT 08/03 A2997 RMK A01 T00830028  RH  068%=      5-min Rain = 0
KQU1 170549Z 01005KT 08/03 A2997 RMK A01 T00830029  RH  069%=      5-min Rain = 0
KQU1 170550Z 35004KT 08/03 A2997 RMK A01 T00820028  RH  069%=      5-min Rain = 0
KQU1 170551Z 34004KT 08/03 A2997 RMK A01 T00810027  RH  069%=      5-min Rain = 0
KQU1 170552Z 34004KT 08/03 A2997 RMK A01 T00810027  RH  069%=      5-min Rain = 0
KQU1 170553Z 35004KT 08/03 A2997 RMK A01 T00800027  RH  069%=      5-min Rain = 0
KQU1 170554Z 01004KT 08/03 A2996 RMK A01 T00800027  RH  069%=      5-min Rain = 0
KQU1 170555Z 01005KT 08/03 A2996 RMK A01 T00800027  RH  069%=      5-min Rain = 0
KQU1 170556Z 02006KT 08/03 A2996 RMK A01 T00800027  RH  069%=      5-min Rain = 0
KQU1 170557Z 04004KT 08/03 A2996 RMK A01 T00800027  RH  069%=      5-min Rain = 0
KQU1 170558Z 01003KT 08/03 A2996 RMK A01 T00800027  RH  069%=      5-min Rain = 0
KQU1 170559Z 02003KT 08/03 A2996 RMK A01 T00800027  RH  069%=      5-min Rain = 0

Page generated in 0.0778 seconds.